GFSFLT1_700_spd_000.txt.gz
Wind_Speed
3 3 3 4 4 5 5 5 4 3 3 3 2 1 1 1 2 2 4 7 8 9 12 14 13 12 12 12 11 11 11 10 10
4 4 4 5 6 6 5 5 4 3 4 3 3 2 2 2 2 3 5 5 8 12 13 15 15 13 11 10 10 10 9 9 10
5 6 6 7 7 6 6 5 5 5 6 5 4 4 3 2 2 2 3 5 9 12 15 15 14 13 11 10 9 9 9 8 8
7 7 8 8 8 7 7 6 7 7 8 7 6 5 4 2 1 1 4 6 9 10 13 15 15 12 11 10 10 10 10 9 9
8 8 9 10 9 8 8 8 8 9 10 9 7 6 5 3 2 3 5 5 7 9 12 13 14 14 12 10 10 10 10 10 10
8 9 10 10 10 9 10 10 10 11 11 10 9 8 7 5 5 5 5 6 7 8 9 11 13 13 14 12 11 11 11 12 13
8 9 10 11 11 11 12 13 13 13 14 12 11 10 9 8 8 7 8 7 9 10 11 11 12 14 14 14 13 14 14 14 15
9 9 11 13 13 13 14 14 15 16 16 15 14 13 12 11 11 11 10 10 10 11 13 14 13 14 15 15 16 16 16 16 16
9 10 12 12 13 15 16 17 17 19 19 19 17 16 15 14 14 14 13 13 13 13 14 15 16 15 16 17 18 19 19 19 19
11 12 13 13 14 16 18 20 21 22 22 22 21 20 18 17 17 17 15 16 16 16 18 19 18 19 18 19 20 21 22 23 23
15 14 15 14 16 17 19 22 24 25 24 26 25 23 22 21 21 20 19 18 19 20 21 22 22 22 22 22 22 23 24 26 27
17 18 18 18 17 19 20 23 26 27 28 29 29 28 26 25 24 24 23 22 22 23 25 26 26 26 26 26 25 26 27 29 30
21 21 21 23 22 21 21 23 26 30 31 32 33 31 31 29 27 27 26 26 25 27 29 30 30 29 29 28 28 30 30 31 32
24 24 25 27 26 26 26 25 26 30 33 35 36 36 35 33 32 31 30 30 30 31 32 32 33 32 32 31 30 31 32 33 33
26 26 27 30 31 30 30 30 29 31 33 37 38 39 39 38 37 35 33 34 34 34 34 35 34 34 33 34 33 32 32 33 34
26 27 29 32 33 33 34 34 34 33 34 37 38 40 41 41 40 38 37 37 36 36 36 36 35 35 35 35 34 34 32 33 33
30 31 31 32 34 35 36 37 37 36 37 37 39 40 41 42 40 40 39 38 38 37 37 36 37 36 35 34 33 34 33 33 33
34 32 30 30 33 33 34 36 37 38 38 38 41 42 41 41 40 40 39 38 38 36 36 37 37 36 34 33 33 32 32 32 33
34 32 31 31 31 32 34 34 36 39 39 42 40 42 42 42 41 39 37 37 37 35 36 37 37 35 34 33 32 31 32 32 35
35 33 32 30 30 30 32 34 35 37 38 41 42 41 42 42 43 40 38 38 34 34 35 37 36 34 33 32 32 33 33 34 37

GFSFLT1_700_spd_003.txt.gz
Wind_Speed
5 6 7 7 8 10 10 9 8 8 7 7 6 5 4 5 5 4 3 3 6 9 10 11 12 12 12 12 11 11 10 9 9
7 8 9 9 10 11 10 10 9 9 8 8 7 7 6 6 5 3 3 4 6 9 10 11 11 11 11 12 9 9 9 8 8
9 9 10 10 11 11 11 11 10 10 9 9 9 9 8 7 5 4 4 5 7 8 10 13 12 11 10 10 9 7 7 8 8
10 11 11 11 13 13 12 12 12 11 11 11 11 12 10 7 6 5 5 8 8 9 10 12 13 11 9 9 9 10 9 9 9
11 11 12 12 13 13 13 13 13 13 13 12 13 14 12 9 8 7 6 9 10 10 11 12 11 11 11 9 9 9 9 9 11
11 12 13 14 14 14 14 14 14 14 15 15 15 16 15 11 10 9 9 9 11 12 12 12 12 11 11 11 11 10 10 12 12
12 13 14 14 15 15 16 16 16 16 17 18 18 18 17 14 13 12 12 11 13 13 13 14 13 13 14 13 13 13 13 13 13
13 13 14 14 15 16 17 17 19 19 20 20 20 20 20 18 16 16 15 15 15 15 15 15 15 14 15 16 15 15 16 16 16
13 14 14 14 15 16 17 18 20 21 22 23 23 24 23 22 20 19 18 18 17 17 18 18 18 17 17 17 18 19 19 19 20
16 15 15 15 15 16 17 19 21 23 25 26 26 27 26 26 24 23 22 22 21 21 21 22 21 20 21 21 21 21 22 23 23
19 19 18 18 19 20 19 19 22 24 27 29 29 30 30 30 29 28 26 25 25 24 25 25 26 25 25 24 25 25 25 25 25
22 22 21 20 21 21 22 22 23 25 28 31 32 34 34 34 34 32 31 30 28 28 28 29 30 30 29 29 29 30 30 30 30
24 24 24 24 24 24 24 25 26 27 29 32 34 37 38 38 38 37 36 34 33 31 31 32 34 34 34 33 33 34 34 34 33
26 27 26 27 28 27 27 29 31 31 31 32 35 38 41 42 42 41 40 39 37 36 36 35 37 37 37 36 36 36 35 35 33
29 29 29 29 29 30 31 31 33 35 35 36 37 37 40 43 45 45 45 43 42 41 40 39 40 38 38 38 36 36 35 34 33
33 32 31 31 31 32 33 34 33 34 36 39 39 40 39 40 43 45 46 46 45 45 44 42 41 41 40 38 36 35 33 32 32
34 34 34 35 35 32 32 34 35 34 34 39 40 42 41 40 41 43 44 44 46 46 45 43 43 42 41 38 36 35 34 32 31
35 36 38 39 37 34 33 33 34 34 34 36 39 44 44 43 42 42 41 41 42 42 42 42 41 41 41 38 35 35 34 32 30
37 38 40 41 40 36 34 34 33 33 33 37 38 38 40 46 48 45 42 40 42 40 40 40 40 41 40 38 35 35 33 32 30
37 39 42 43 41 37 34 34 33 33 35 34 39 39 39 41 45 47 44 43 42 38 38 38 40 41 40 38 35 35 34 32 31

GFSFLT1_700_spd_006.txt.gz
Wind_Speed
7 7 7 8 9 11 12 13 13 11 10 9 7 7 8 8 6 5 6 6 7 10 13 13 14 14 12 11 9 8 8 8 7
8 9 9 10 11 12 13 13 13 12 11 10 9 9 9 9 9 7 7 7 7 11 11 13 13 12 12 10 10 8 7 7 6
10 10 11 12 13 13 13 13 13 12 11 10 10 10 10 9 12 10 8 7 8 10 12 14 14 13 12 11 10 10 8 7 7
12 11 12 13 13 14 14 15 15 14 13 12 13 13 12 12 13 13 10 9 8 10 11 14 15 13 13 12 10 9 11 10 10
14 12 13 13 13 14 15 16 16 15 15 15 15 16 15 14 15 15 12 11 10 10 11 13 14 14 13 12 11 10 10 11 11
14 14 13 13 14 14 16 16 16 16 16 17 17 18 18 17 17 17 15 13 12 12 13 13 13 13 12 12 13 13 12 12 13
14 14 13 14 14 16 17 17 17 17 18 19 19 20 20 20 19 19 18 16 14 14 14 14 14 13 13 12 13 13 14 14 14
16 14 15 15 15 16 17 17 19 20 20 20 22 23 23 23 22 21 21 19 17 17 16 16 16 17 16 15 14 14 15 16 16
17 18 16 16 15 16 16 18 19 21 23 24 24 26 26 26 26 24 24 23 22 20 19 19 19 19 20 20 19 19 19 19 19
20 20 19 18 19 18 17 17 18 20 23 25 27 28 29 29 29 29 27 27 27 25 24 23 22 23 23 24 24 25 25 25 25
23 21 22 21 21 21 21 19 21 21 23 25 27 29 31 32 33 33 32 31 30 30 29 27 27 27 27 28 28 28 30 29 29
26 24 23 23 24 24 23 23 23 23 24 26 28 30 31 34 36 37 37 36 35 34 33 32 32 31 31 31 32 32 32 33 31
26 26 25 26 25 26 25 25 25 26 28 29 30 31 32 34 36 39 40 41 40 38 37 36 36 36 36 35 35 35 36 34 33
27 26 27 27 28 28 27 27 28 28 30 32 32 33 34 35 36 37 40 42 42 43 41 41 40 40 41 41 38 38 37 36 34
28 28 30 32 31 29 29 31 31 31 31 34 34 34 35 35 37 37 38 39 42 44 44 43 44 44 43 45 43 40 39 36 33
31 30 32 34 35 33 33 34 33 31 32 35 35 35 36 36 35 36 38 39 39 41 42 44 45 45 44 44 44 41 38 35 33
35 35 35 36 36 37 36 37 36 34 31 34 36 36 35 34 34 36 37 38 38 38 38 41 42 42 43 42 42 39 37 34 33
36 38 38 38 40 39 38 38 39 38 33 32 33 37 39 37 35 34 35 35 36 38 37 37 37 37 38 37 38 36 35 34 33
39 41 40 40 40 42 41 41 40 38 35 35 35 37 37 39 42 36 35 35 35 35 37 37 37 38 37 36 35 35 34 33 34
42 39 39 41 42 42 43 42 41 37 38 36 38 39 38 38 41 43 37 40 35 36 36 37 37 35 37 38 34 35 35 34 34

GFSFLT1_700_spd_009.txt.gz
Wind_Speed
7 8 10 11 11 11 12 13 14 14 13 12 12 12 11 11 8 6 8 9 11 9 11 11 13 13 14 14 13 11 10 9 8
9 10 12 12 12 13 14 14 13 13 12 12 12 12 12 12 9 9 9 11 11 11 11 11 12 13 13 12 11 11 9 9 9
11 12 13 12 13 12 13 13 13 12 11 12 12 12 12 12 9 9 10 12 11 12 12 11 11 12 11 10 9 9 9 7 8
14 14 14 13 13 13 13 12 13 14 14 14 13 13 13 12 12 11 11 12 12 12 12 11 11 11 11 10 9 9 8 9 8
16 15 14 14 14 13 13 13 14 15 15 16 16 15 14 14 14 13 14 14 14 14 13 12 12 11 11 11 10 10 9 10 9
15 14 14 15 15 14 14 14 15 15 16 17 18 18 18 17 17 15 17 17 17 16 15 13 12 12 11 11 12 12 11 11 12
13 14 15 14 15 14 15 15 15 15 16 17 18 19 20 20 20 19 19 20 20 19 18 16 15 14 13 13 13 14 15 15 15
13 16 15 14 15 15 15 16 16 16 16 17 18 20 22 22 22 22 22 23 23 22 21 20 18 18 17 16 16 16 17 18 19
18 18 17 17 17 17 16 17 17 17 18 18 19 21 23 24 24 25 25 25 26 26 25 23 23 22 22 21 21 20 20 20 22
20 20 19 19 19 20 18 18 19 18 19 20 19 20 23 26 26 27 28 28 29 29 29 28 27 26 26 26 26 25 25 24 24
23 24 23 22 21 21 21 20 20 20 19 20 23 23 23 25 27 29 30 31 31 32 32 32 32 31 30 30 30 30 29 30 29
24 25 25 23 23 22 22 23 22 22 23 22 24 25 26 27 28 29 30 31 33 34 35 35 36 35 35 35 35 35 34 33 34
25 25 25 24 24 24 24 24 25 24 25 25 26 27 27 28 28 30 31 32 32 33 35 38 39 40 39 39 40 39 39 38 36
30 31 29 24 26 29 30 28 27 27 28 29 29 29 28 28 30 30 30 31 33 33 33 36 38 41 42 43 44 44 43 42 41
33 32 32 30 29 30 32 33 32 32 31 33 32 29 29 28 29 28 28 29 31 32 33 34 36 38 41 44 46 46 45 45 44
33 34 33 32 33 33 35 36 35 33 33 37 36 35 31 29 28 28 28 29 29 32 33 32 34 35 38 42 43 45 47 46 43
33 32 33 33 36 36 36 37 39 38 36 38 41 41 34 30 29 31 30 28 29 30 31 33 35 36 36 36 38 39 42 42 41
31 34 35 37 38 39 37 37 38 40 37 38 41 44 41 36 32 33 33 32 30 29 30 32 34 37 38 37 36 36 36 37 37
35 35 37 39 41 40 39 39 39 40 41 40 39 40 39 42 43 34 35 36 33 32 31 32 34 36 39 39 37 35 36 36 36
34 36 37 38 39 38 38 39 40 41 42 41 39 39 39 40 44 48 37 40 35 34 32 32 34 35 37 39 38 36 37 35 35

GFSFLT1_700_spd_012.txt.gz
Wind_Speed
9 11 11 11 11 11 12 12 12 12 12 12 11 10 10 8 6 7 7 8 9 10 11 12 13 13 13 12 11 9 7 6 6
10 12 13 13 12 13 12 12 11 11 12 12 13 12 12 11 8 9 8 9 9 9 11 12 12 12 12 11 10 9 7 6 6
12 13 15 14 14 13 13 11 11 11 11 12 12 12 13 12 12 11 9 10 10 10 11 11 12 12 11 10 10 9 9 8 8
14 14 15 15 15 13 13 12 12 12 12 12 12 13 14 13 13 13 12 12 12 12 13 13 13 13 12 10 9 9 9 10 10
16 15 14 15 14 13 13 12 13 13 13 13 13 13 13 14 13 13 14 14 15 14 14 14 14 14 14 12 11 11 11 10 10
13 13 13 14 14 14 13 13 13 14 15 15 15 14 15 15 14 14 15 16 17 17 17 17 17 17 16 15 14 13 13 13 13
11 13 14 15 16 15 14 13 13 14 15 15 16 16 16 16 17 16 17 18 19 19 20 20 20 20 19 17 16 15 14 14 15
13 15 15 17 17 16 15 15 14 14 15 15 16 16 17 18 18 18 19 20 21 22 22 22 22 23 22 22 20 19 18 18 18
17 18 17 18 18 17 17 17 17 16 17 16 16 17 18 19 20 20 22 22 24 25 26 26 26 25 25 25 25 24 24 23 23
16 18 18 19 19 18 18 18 19 19 19 19 19 18 18 20 21 22 23 23 25 27 29 30 30 29 28 28 28 28 28 27 27
18 17 17 17 17 18 18 19 19 20 21 21 22 21 21 22 24 25 25 26 26 27 30 32 33 33 33 32 32 32 32 32 31
20 20 20 22 20 19 19 19 21 21 23 23 24 24 24 25 25 27 27 28 28 28 29 32 34 35 36 37 36 37 37 37 36
22 22 22 23 25 26 24 23 24 25 26 25 26 27 27 27 26 27 28 28 29 30 31 33 34 36 36 38 39 41 43 43 42
28 28 28 28 29 30 29 28 28 29 30 30 30 30 30 29 29 27 27 27 28 30 30 32 34 35 36 38 41 43 46 47 47
30 30 28 29 30 29 30 31 32 33 34 36 35 34 33 32 32 30 28 26 26 27 28 30 32 34 37 39 41 44 46 48 49
27 29 30 30 30 29 31 33 36 36 37 41 39 39 37 35 33 33 30 29 28 27 27 27 28 29 32 36 39 41 44 46 48
28 30 31 31 33 33 35 37 39 41 39 43 45 48 42 36 32 34 34 32 32 30 29 28 28 29 30 31 34 37 41 43 44
33 35 36 37 37 38 39 41 42 44 41 41 44 50 52 46 37 36 37 36 35 32 32 32 31 31 33 31 30 31 36 41 44
36 36 36 36 38 39 40 42 43 43 44 42 44 46 49 51 53 42 38 39 37 37 37 36 34 34 35 33 32 31 32 37 41
35 37 38 39 39 40 39 40 42 43 45 44 44 47 48 49 51 55 43 43 41 41 42 40 37 37 37 36 33 32 33 34 38

GFSFLT1_700_spd_015.txt.gz
Wind_Speed
7 8 9 10 11 12 12 12 12 11 11 11 11 10 9 9 9 10 9 9 10 11 13 13 12 12 12 12 12 10 9 8 7
9 11 11 12 13 13 13 12 12 10 11 11 11 10 9 8 9 9 10 10 11 12 13 12 12 12 12 12 12 11 10 9 9
11 12 14 14 15 14 13 12 11 10 12 12 11 10 10 9 9 9 10 12 12 14 14 13 14 13 13 13 13 12 10 9 8
13 13 14 14 15 14 13 13 12 11 12 13 12 12 11 10 11 10 11 13 13 14 15 15 14 14 13 13 14 13 12 10 10
14 14 13 12 13 13 12 13 12 12 12 13 13 13 13 12 12 13 13 14 15 16 16 16 15 15 15 14 14 14 14 13 12
11 11 10 11 12 13 13 13 13 13 13 13 14 14 14 15 13 14 15 16 17 17 17 17 18 17 17 16 16 16 15 15 14
11 11 12 13 13 14 14 13 14 14 13 14 15 15 16 16 16 16 17 18 19 19 19 19 20 20 20 19 19 19 18 18 18
12 13 14 15 15 15 15 15 14 14 14 15 16 16 17 17 17 18 18 19 21 22 22 22 23 23 23 23 22 22 22 22 22
12 13 14 15 15 15 16 16 16 16 17 17 17 17 17 18 19 18 19 20 22 24 26 26 26 27 27 26 26 26 26 26 26
10 10 10 12 13 15 16 16 16 16 18 19 20 20 20 20 22 21 22 22 24 25 27 29 30 31 31 31 30 30 30 30 30
12 11 12 14 16 16 17 17 17 17 19 19 20 21 22 24 24 24 25 26 27 28 29 31 33 34 34 34 35 34 35 35 35
18 17 17 18 20 21 22 21 22 22 22 22 23 25 25 25 26 27 28 27 30 30 31 32 34 35 36 37 37 38 39 39 40
24 24 23 24 25 27 28 28 28 27 27 27 28 30 30 29 30 31 31 31 31 31 32 33 35 36 37 39 40 41 42 43 43
28 28 26 26 28 29 31 32 33 32 31 32 34 34 34 34 34 33 33 34 34 33 31 33 35 35 36 38 41 43 44 45 47
28 28 27 28 30 30 31 34 35 35 36 39 40 39 39 39 38 37 37 36 37 37 35 34 34 34 35 36 39 41 42 44 47
29 30 29 29 31 32 34 35 38 40 41 46 47 47 45 42 42 41 40 40 38 41 39 37 35 33 32 33 36 37 39 41 43
30 32 32 34 36 37 38 40 42 44 44 48 51 55 52 47 43 43 43 43 43 42 43 41 39 37 36 34 35 35 36 38 40
31 34 36 38 41 40 40 42 43 46 46 47 49 53 56 55 50 47 45 45 46 44 44 46 44 42 41 40 40 38 36 36 36
32 35 37 38 40 40 41 42 45 46 49 48 47 49 50 52 57 56 51 48 48 46 46 47 48 47 46 44 45 43 39 37 39
36 38 40 42 43 44 45 45 45 47 50 50 49 50 51 52 53 60 56 50 49 47 47 50 51 51 49 49 47 46 43 39 41

GFSFLT1_700_spd_018.txt.gz
Wind_Speed
7 5 7 7 8 8 9 10 11 10 11 11 12 10 8 9 10 9 8 9 9 9 10 11 12 11 11 11 10 10 9 7 7
10 8 9 9 10 10 10 10 10 11 11 12 12 12 10 10 10 10 10 10 10 10 11 12 12 12 11 11 10 10 10 9 7
12 11 12 11 11 11 10 10 10 11 12 12 13 13 12 11 11 11 11 11 11 12 12 13 13 13 12 11 10 9 10 9 9
13 12 13 12 11 11 11 11 11 12 13 13 13 14 13 13 12 12 12 13 13 14 14 15 15 15 15 13 12 10 10 10 10
11 10 10 10 10 10 11 11 12 13 14 14 14 14 14 13 14 14 14 15 16 16 16 17 17 18 17 15 14 13 12 12 11
8 8 8 9 9 10 11 12 13 14 14 14 15 15 15 15 15 16 17 17 18 19 19 19 19 19 20 19 17 16 16 15 15
9 10 10 11 11 13 13 14 14 15 15 16 16 16 16 16 16 17 19 19 21 22 22 22 21 22 22 21 21 21 20 19 19
9 10 12 13 14 16 16 17 17 18 19 19 18 18 18 17 18 18 20 21 22 24 25 25 25 25 26 25 25 25 24 24 24
9 9 10 11 12 14 15 16 17 17 19 20 20 21 21 21 21 20 21 22 22 24 26 27 29 30 30 30 30 29 29 28 28
11 11 11 13 14 15 15 16 18 18 19 20 20 20 22 23 24 24 25 26 26 27 27 28 31 32 32 33 34 34 33 33 33
13 14 13 14 18 19 20 21 22 22 23 24 23 24 25 26 26 27 28 29 29 30 31 31 32 34 35 36 36 36 37 38 38
20 21 21 22 24 26 27 27 29 30 30 30 29 30 30 29 30 31 32 32 32 33 34 35 35 36 37 39 40 40 39 39 40
24 25 25 27 29 31 31 31 32 33 34 34 33 34 34 34 35 36 36 35 36 37 37 38 39 39 40 40 41 42 43 44 44
27 28 26 26 27 29 32 32 34 35 35 37 37 38 38 38 38 38 40 41 41 40 40 41 43 43 43 43 42 42 44 45 45
29 30 30 30 30 30 31 34 36 39 40 43 44 45 45 44 42 43 44 44 44 44 45 44 45 46 46 46 45 44 43 43 44
28 29 30 32 34 35 37 40 41 42 44 48 48 50 49 50 49 47 47 46 45 48 48 48 48 48 48 48 46 44 43 43 44
29 31 32 34 36 37 39 42 44 44 44 48 51 56 54 52 52 51 49 45 44 46 46 49 49 49 49 49 47 47 45 46 46
30 32 34 36 38 40 41 43 45 48 46 46 48 53 58 57 56 53 51 49 48 50 44 43 45 47 50 50 51 50 47 46 47
32 34 37 39 41 43 44 45 47 49 51 50 49 51 53 55 62 56 50 52 47 46 43 48 44 44 46 48 49 49 49 47 46
32 35 36 38 40 42 44 45 46 48 51 52 53 53 53 53 55 64 61 58 55 54 52 54 46 48 48 48 49 44 47 49 49

GFSFLT1_700_spd_021.txt.gz
Wind_Speed
6 7 8 8 6 7 7 9 9 10 10 8 8 8 9 11 12 12 11 11 12 12 11 10 9 9 9 9 10 9 9 8 8
8 10 9 9 9 9 9 10 11 11 11 11 9 9 10 12 13 14 13 13 13 14 13 12 11 11 10 10 10 10 9 8 8
10 11 11 11 11 10 10 11 12 13 13 12 12 11 11 13 14 16 16 16 15 15 15 15 14 14 13 12 12 12 10 9 8
11 11 12 13 12 11 11 12 12 13 13 14 14 14 14 14 16 17 18 18 17 17 17 17 18 17 17 16 15 14 13 12 10
7 9 9 9 10 10 12 13 13 14 15 16 16 16 16 17 18 18 19 20 19 20 19 20 20 20 21 19 19 18 17 16 14
8 10 9 10 11 12 13 14 14 15 16 17 18 19 19 19 19 20 21 22 22 22 22 22 23 23 24 23 23 22 21 21 19
9 10 11 12 12 13 14 15 16 17 18 18 19 19 20 20 21 21 23 23 24 24 25 26 26 26 26 27 27 26 25 25 24
8 9 11 12 13 14 15 16 17 17 19 20 21 21 22 23 23 23 24 25 26 26 27 28 29 30 30 30 30 30 30 29 29
9 10 11 12 13 13 14 15 16 18 19 20 20 22 24 25 26 26 27 27 27 27 28 30 31 31 32 33 33 34 34 34 33
11 12 13 14 16 18 19 20 20 21 22 23 24 26 27 28 29 29 29 30 31 31 32 33 33 34 35 35 35 36 37 38 38
18 19 20 21 23 24 26 27 28 28 29 29 30 31 32 33 34 34 33 32 33 35 36 36 37 37 37 38 39 39 40 39 40
23 25 25 26 28 30 31 31 32 33 34 33 34 35 36 37 38 38 38 36 36 37 39 40 41 42 41 42 41 41 41 42 43
24 24 26 27 28 30 31 31 33 34 36 37 37 38 38 38 38 39 39 39 39 40 41 43 44 46 46 46 46 45 44 44 44
25 26 27 29 30 32 33 34 36 36 37 40 40 41 41 40 40 41 42 43 44 45 46 45 47 48 50 50 50 49 48 48 46
27 28 28 28 29 30 32 34 36 38 40 43 43 43 43 42 42 41 42 43 44 47 49 50 51 50 50 51 51 51 51 51 51
26 27 28 29 30 31 33 35 37 37 41 46 47 48 46 46 46 46 46 46 45 46 46 45 47 49 49 50 51 51 50 50 51
24 26 27 29 31 33 36 40 42 42 43 48 51 55 53 51 51 50 50 49 48 50 49 48 47 47 47 48 47 47 49 52 52
26 28 30 33 35 38 40 43 45 48 46 47 50 55 58 59 55 54 53 52 51 51 50 48 48 47 45 41 46 43 42 47 50
27 29 32 35 38 40 42 44 46 48 49 47 45 47 52 58 66 59 58 55 55 55 54 54 54 53 50 52 46 45 42 44 44
30 33 36 39 41 43 44 44 44 46 49 50 53 53 53 53 57 67 64 61 60 59 58 56 54 55 58 58 57 56 57 51 44

GFSFLT1_700_spd_027.txt.gz
Wind_Speed
10 10 10 11 11 12 14 16 16 18 19 19 19 18 19 19 19 18 18 18 19 18 18 18 18 20 19 18 16 15 15 15 15
11 12 13 13 13 14 16 17 19 20 21 21 21 20 19 20 20 20 20 20 20 19 20 20 21 21 21 21 20 19 18 17 17
12 13 14 15 15 16 18 18 19 20 21 21 22 21 20 20 20 22 22 21 22 22 22 23 23 23 24 25 24 23 21 20 19
11 12 13 15 16 16 18 18 18 19 20 21 22 21 21 20 22 23 23 23 24 24 25 26 26 26 27 27 27 27 26 24 23
11 11 12 13 14 15 16 16 16 18 19 21 21 22 22 23 23 24 24 25 26 27 27 28 29 29 29 29 29 30 29 28 27
14 14 14 15 16 16 17 18 19 21 22 23 24 24 25 25 25 26 26 26 28 29 30 31 31 32 32 32 32 32 32 32 31
17 17 17 18 18 18 18 19 20 20 22 23 23 25 26 27 28 27 28 29 30 31 31 32 34 34 34 34 35 35 35 35 34
18 19 19 19 20 21 20 21 21 22 23 24 26 28 28 29 30 29 29 29 32 32 33 34 35 35 36 36 37 38 38 38 37
20 21 22 22 23 24 24 25 26 27 28 28 29 30 31 33 33 33 32 31 32 35 35 35 36 36 37 38 38 39 39 40 40
22 23 24 25 26 27 27 28 29 31 31 32 33 34 34 34 35 35 35 35 33 34 37 39 38 38 38 38 39 40 41 41 42
22 23 25 26 27 28 29 30 32 33 34 34 35 35 36 36 36 37 36 37 38 37 37 39 41 41 41 41 42 42 43 43 44
22 23 25 26 27 29 30 31 33 34 35 34 34 35 36 36 38 39 40 41 42 42 41 41 43 44 46 46 47 47 47 47 47
25 26 28 30 31 33 34 35 34 35 36 37 37 36 37 37 38 40 41 42 43 44 45 44 43 44 47 49 51 51 51 51 51
29 31 33 35 36 36 36 36 36 36 37 39 39 40 40 40 41 42 43 44 46 45 45 45 46 46 47 48 50 52 53 53 54
32 34 34 35 35 35 35 36 36 38 40 42 43 44 45 45 45 46 46 45 45 46 47 48 49 48 48 49 50 51 52 54 55
30 31 31 32 33 34 36 38 39 41 44 48 50 49 48 47 47 48 48 49 49 50 50 50 50 49 52 51 51 43 44 49 53
27 28 30 31 33 36 38 42 45 46 47 50 52 54 51 48 46 46 46 47 48 48 48 49 50 52 54 55 56 55 54 52 53
27 29 31 34 37 41 43 45 47 48 46 45 47 51 52 53 49 48 49 48 49 50 50 50 51 51 51 52 53 53 55 53 56
30 33 36 39 42 43 43 45 45 45 44 42 40 41 46 51 60 55 52 52 52 53 54 54 55 54 55 55 55 53 54 56 57
33 37 40 41 40 40 42 41 40 40 41 42 44 45 45 46 52 62 60 58 58 57 59 57 58 57 58 60 61 60 57 56 58

GFSFLT1_700_spd_030.txt.gz
Wind_Speed
8 10 11 11 13 13 14 15 15 17 18 18 19 19 19 20 21 21 21 19 20 18 19 19 19 20 21 20 20 19 18 17 17
11 13 13 14 15 15 16 17 18 18 20 20 19 20 20 21 21 22 21 20 20 20 21 21 21 21 22 22 22 22 21 20 19
12 14 15 16 16 17 18 19 19 20 20 21 20 20 20 21 21 23 23 22 22 21 22 23 24 24 24 24 25 25 24 23 23
13 13 14 15 15 16 17 17 18 18 18 19 19 20 19 20 21 23 24 24 23 24 24 25 26 26 26 26 26 27 27 26 26
15 15 16 17 17 18 19 19 19 19 20 20 20 21 21 21 21 22 23 23 23 23 25 25 27 28 29 29 29 29 29 29 29
16 16 16 16 17 17 18 18 18 18 19 19 20 21 20 20 20 20 20 20 22 23 24 25 26 27 29 30 31 32 32 32 32
16 16 16 16 16 17 17 17 18 18 19 20 21 20 21 21 21 21 21 22 23 25 25 25 27 29 30 30 31 32 33 33 33
18 17 17 18 18 18 19 20 21 21 22 22 24 26 26 26 27 27 26 26 25 27 29 29 29 30 30 31 32 33 34 34 35
19 20 20 20 21 21 22 23 24 26 26 27 27 27 28 29 29 29 29 29 29 29 29 32 34 34 33 34 34 34 35 35 36
19 20 21 22 23 24 25 26 28 29 30 30 30 31 32 33 33 33 32 31 32 33 33 33 36 38 38 37 37 38 38 39 39
20 21 23 23 24 26 28 30 31 33 33 33 33 32 32 32 32 33 35 35 36 36 37 38 38 38 39 41 40 40 41 41 42
22 24 25 27 29 31 33 34 35 36 36 36 36 36 34 34 35 36 37 37 38 38 38 39 41 42 41 40 41 41 43 45 45
26 28 30 31 33 35 36 36 36 36 37 37 37 38 37 37 38 39 40 41 42 42 42 42 42 40 41 42 44 45 45 45 45
29 31 33 34 35 36 36 36 37 38 39 40 40 41 43 44 44 44 45 43 40 40 42 42 43 45 45 43 40 40 42 44 46
29 31 31 33 34 35 36 36 37 40 42 44 46 46 45 44 46 44 43 42 40 41 42 43 45 46 47 47 44 44 44 44 45
27 28 30 32 33 34 36 39 41 43 47 48 47 44 42 41 40 39 40 40 41 40 40 43 43 43 44 44 45 48 49 50 51
25 27 29 31 34 37 40 44 46 45 45 48 48 48 42 41 39 38 39 39 41 43 43 45 45 45 46 46 47 48 50 52 52
24 27 30 33 37 40 43 43 43 42 41 41 45 48 50 52 49 46 44 45 45 45 47 48 48 48 49 50 51 51 52 54 55
27 31 34 38 40 40 40 40 42 42 41 38 36 39 45 50 59 54 49 48 49 49 50 51 53 53 54 53 54 56 58 60 59
32 35 38 37 37 39 39 39 39 39 40 41 41 41 41 43 50 62 58 56 54 54 54 53 54 55 56 57 58 59 61 61 62

GFSFLT1_700_spd_033.txt.gz
Wind_Speed
8 9 10 11 12 13 14 14 15 16 17 17 18 19 19 19 19 18 18 18 21 19 18 19 19 18 18 19 19 19 19 18 18
9 10 12 13 13 14 15 16 17 17 18 19 19 19 19 18 18 19 18 18 20 21 20 20 21 20 19 20 20 21 21 21 20
11 10 10 11 12 13 14 14 15 15 15 15 15 16 15 16 16 16 17 17 18 19 19 20 21 21 22 21 22 22 22 22 22
14 13 12 11 12 12 13 13 13 13 14 14 14 14 14 15 15 15 17 16 16 18 18 19 20 20 21 22 23 24 25 25 24
14 14 13 12 12 11 11 12 12 12 12 12 13 13 13 13 14 13 14 15 17 18 18 19 19 20 21 22 23 24 25 26 27
14 14 12 12 11 10 11 12 12 13 14 15 16 16 17 18 17 16 16 17 19 20 20 20 20 21 22 23 24 25 26 27 27
11 11 11 11 12 13 14 15 16 17 18 20 20 21 21 21 20 20 20 19 20 20 22 23 24 24 25 26 26 26 27 28 29
11 13 15 15 16 16 17 18 19 20 21 22 23 23 24 23 23 23 23 23 24 24 24 24 26 28 28 29 29 30 30 30 31
15 14 15 16 16 17 18 19 21 22 24 25 25 25 25 25 25 26 26 25 26 27 27 28 29 30 31 32 32 32 33 33 34
17 18 18 20 21 22 23 25 26 27 28 28 29 27 27 27 27 27 28 29 29 30 31 30 30 31 30 31 32 34 34 35 35
19 20 21 22 24 26 27 29 31 32 32 32 32 31 30 28 29 31 31 32 33 33 35 36 36 36 36 34 34 36 37 37 36
21 22 24 25 27 29 30 31 32 33 33 33 33 33 34 34 35 36 38 38 39 39 39 39 39 39 39 35 30 33 38 38 40
23 24 27 29 30 31 32 32 33 34 36 36 36 37 38 40 42 42 41 40 40 40 40 40 39 39 39 38 38 41 40 40 39
24 26 27 29 30 31 31 33 35 36 37 38 39 40 40 41 40 40 39 38 38 38 36 37 39 40 40 41 42 43 43 42 41
23 24 26 27 28 30 32 33 36 40 42 43 42 40 38 40 39 38 37 37 38 37 38 39 39 39 40 42 44 45 46 44 44
21 22 25 27 29 32 34 37 39 41 43 41 40 38 37 38 36 37 37 37 37 37 39 39 40 40 41 43 44 45 46 48 48
20 22 25 28 31 35 38 40 39 38 42 43 43 43 38 38 37 35 35 35 37 37 38 40 41 43 45 46 45 46 48 50 52
21 24 28 32 35 36 37 37 38 36 37 40 42 45 47 46 41 40 39 41 42 42 43 42 43 45 47 47 49 48 50 52 54
23 27 30 33 35 35 35 36 37 37 36 35 37 40 45 50 57 51 45 44 46 46 47 47 47 49 50 51 51 52 54 56 58
27 30 32 33 34 34 35 36 36 37 37 38 38 38 40 43 51 60 56 51 48 48 49 48 49 50 51 53 54 55 57 58 60

GFSFLT1_700_spd_036.txt.gz
Wind_Speed
8 8 9 10 10 11 11 12 12 12 13 13 14 15 15 15 16 15 16 15 15 14 14 15 16 17 18 17 16 16 16 16 16
9 9 9 10 11 11 11 11 11 11 12 12 13 13 13 12 13 13 14 14 14 15 15 14 15 18 19 18 18 18 18 18 18
8 8 9 8 8 8 8 8 8 9 9 10 11 11 12 13 13 14 14 14 14 15 15 16 16 18 19 19 19 20 20 20 20
9 8 8 8 8 8 8 8 8 9 9 10 10 12 12 13 14 14 15 15 15 15 16 17 17 18 19 19 20 21 21 22 22
9 8 8 7 7 7 8 8 9 10 11 12 13 14 15 16 16 17 18 18 18 18 18 18 19 20 20 21 22 22 22 22 24
10 9 9 8 8 9 10 11 12 13 14 15 16 17 18 18 19 19 20 20 21 21 22 22 23 23 23 24 24 24 24 25 26
12 11 11 11 12 13 14 15 16 17 18 19 20 20 21 21 20 20 20 21 21 21 21 22 22 24 25 24 25 25 25 26 26
11 11 12 13 13 14 15 16 17 18 19 20 21 22 22 22 22 21 20 20 20 21 23 24 24 25 24 26 26 26 26 27 28
13 12 13 15 16 16 16 18 19 20 21 22 22 22 22 23 23 24 24 26 26 26 26 25 25 25 27 28 27 28 28 31 31
16 16 16 16 17 18 19 20 22 23 24 24 24 24 24 25 26 27 28 28 30 31 31 31 30 30 31 31 30 30 32 33 34
16 17 18 19 20 22 23 24 26 26 26 26 27 26 27 28 30 30 31 33 34 35 36 36 37 37 38 37 36 37 35 37 39
18 20 21 22 23 24 26 27 28 28 29 29 29 30 32 34 36 36 35 35 35 35 36 37 37 38 38 39 39 38 39 40 40
19 21 23 23 25 26 26 27 29 31 32 32 33 34 36 37 36 34 34 34 35 34 35 35 36 37 39 40 40 42 43 44 46
20 21 22 23 25 26 28 30 32 33 35 36 36 35 35 34 34 34 34 35 35 35 36 37 37 38 40 41 42 43 44 45 45
19 21 22 23 26 28 30 33 36 38 38 36 34 33 35 35 34 33 33 35 35 36 37 38 38 39 41 42 43 45 45 46 47
18 20 22 24 27 30 32 35 36 38 37 36 34 33 35 34 34 34 35 35 36 37 38 39 41 41 41 43 45 46 48 49 51
18 20 23 26 30 33 35 35 35 36 37 37 38 38 35 36 36 35 35 37 37 39 40 41 43 44 46 46 47 48 49 50 52
19 22 26 29 32 34 34 34 33 34 36 39 40 43 44 43 38 39 38 41 41 42 43 44 45 47 48 50 50 50 51 53 54
21 25 28 31 32 32 32 33 34 35 35 36 39 41 45 49 54 45 43 45 48 49 50 50 51 52 53 52 53 53 54 54 54
24 27 30 31 32 33 33 34 35 36 36 37 38 40 43 47 54 61 57 53 51 52 54 53 53 52 54 54 54 54 55 56 57

GFSFLT1_700_spd_039.txt.gz
Wind_Speed
6 5 6 7 8 8 9 10 10 11 12 12 13 13 14 15 15 15 15 15 15 15 15 16 16 16 16 16 15 15 15 16 15
6 6 6 6 6 6 7 8 8 9 10 11 11 11 12 13 13 14 14 14 16 17 16 17 17 19 18 18 18 18 18 18 18
7 7 7 7 7 8 8 9 9 9 10 10 11 12 13 14 15 15 15 16 16 17 18 17 18 19 19 20 20 20 20 21 21
8 8 8 8 8 8 9 9 10 10 11 12 13 14 14 16 18 18 19 19 19 19 19 19 19 20 21 21 22 22 22 22 23
8 6 6 7 7 7 7 8 9 10 11 11 13 14 15 17 18 20 21 22 22 22 22 22 22 22 23 24 23 23 23 24 24
9 7 7 7 8 8 9 10 11 11 12 12 13 14 16 17 18 20 22 23 24 23 23 23 24 24 25 24 24 24 23 24 24
10 10 10 10 10 10 10 11 12 13 14 15 16 17 18 19 19 20 20 21 22 22 23 22 24 25 25 24 25 24 24 25 25
11 10 11 12 11 12 12 13 14 16 17 18 20 20 20 20 20 20 20 20 20 20 21 22 23 24 25 26 27 27 27 27 27
12 13 14 14 14 15 15 16 18 19 20 20 20 20 20 21 21 22 23 24 24 24 25 25 26 26 27 28 26 28 30 29 30
15 15 15 15 16 17 19 19 19 21 22 22 22 23 24 25 26 26 28 29 30 31 32 33 32 32 33 34 36 36 36 35 36
16 18 18 18 18 20 21 22 23 23 23 24 24 26 27 29 30 31 31 32 33 33 33 33 34 34 34 36 37 39 40 42 42
18 20 20 20 21 22 24 23 24 26 26 27 28 30 32 33 33 33 33 32 32 33 33 34 34 35 35 36 37 38 40 41 43
19 20 20 20 22 22 24 26 27 28 29 30 32 34 34 33 32 32 32 32 33 34 34 34 35 36 38 38 39 40 41 42 43
19 19 20 20 21 23 26 28 30 32 33 34 34 34 32 31 31 32 32 33 34 35 36 37 38 38 40 40 41 43 44 45 46
18 18 19 21 23 25 29 32 35 36 35 33 31 32 32 32 32 32 32 33 35 36 36 38 39 40 42 43 44 46 47 48 49
17 18 21 22 25 28 31 34 36 36 35 33 31 31 32 32 32 32 32 33 36 37 39 40 42 43 44 46 48 49 50 52 53
18 20 21 24 27 31 34 35 36 36 35 35 36 35 33 34 33 32 33 35 36 38 41 43 45 47 49 51 52 54 55 56 57
19 20 23 26 30 33 34 34 33 34 35 37 37 39 40 40 35 35 35 39 39 41 44 46 49 52 54 56 57 57 59 60 60
19 22 25 29 32 33 33 33 34 35 36 36 36 38 42 45 47 39 38 42 45 47 49 51 54 56 58 59 60 60 60 61 61
21 24 27 30 33 34 34 35 35 35 35 36 37 38 41 44 50 55 52 49 50 53 55 59 60 60 60 61 61 62 62 61 61

GFSFLT1_700_spd_042.txt.gz
Wind_Speed
4 4 3 3 4 5 6 7 8 9 10 11 12 13 14 15 15 16 15 15 16 15 16 16 17 16 17 17 17 17 17 17 16
4 4 4 4 4 5 5 6 6 6 8 8 10 11 12 13 14 15 16 16 17 17 17 17 18 18 19 19 19 19 19 19 19
5 4 4 4 4 5 6 6 7 7 8 9 10 11 12 13 14 15 16 17 17 18 18 19 20 19 20 19 19 19 19 20 20
5 4 4 4 5 5 6 6 6 7 7 9 10 11 11 13 14 15 16 16 16 17 18 19 20 21 21 21 21 20 20 21 21
6 5 5 5 4 5 5 6 6 7 8 9 10 12 12 14 16 17 18 18 18 18 18 19 20 20 20 20 20 21 22 23 23
6 6 6 6 7 7 8 8 8 8 8 9 11 13 15 16 18 19 19 19 18 18 17 18 18 20 22 23 22 23 23 24 23
7 8 8 9 9 9 9 9 10 10 12 13 15 16 18 18 19 20 19 19 19 19 19 20 21 22 21 21 23 24 25 25 25
10 10 11 11 12 11 11 12 13 14 15 16 18 19 19 20 20 20 20 21 21 21 22 22 23 24 24 25 23 23 26 26 26
12 12 13 13 14 14 14 15 17 17 17 18 19 19 20 21 21 22 22 23 24 25 26 27 27 29 30 31 31 32 32 32 31
14 14 16 17 16 16 17 18 18 19 20 20 21 22 23 24 25 26 27 27 28 29 29 29 29 29 31 33 34 36 37 38 38
17 17 19 19 19 19 20 19 19 21 22 24 25 26 27 28 29 29 29 29 28 28 29 31 31 31 32 33 34 35 36 38 39
18 20 21 20 20 21 20 20 21 23 24 26 28 29 31 31 31 30 29 29 30 30 31 31 32 32 33 34 34 36 37 38 38
19 21 20 19 19 19 19 22 23 25 26 28 30 31 32 31 30 30 30 30 30 31 32 32 33 34 34 35 36 37 38 39 40
20 20 17 16 17 19 21 24 26 28 29 31 32 31 31 30 30 30 30 30 30 31 32 33 34 35 36 37 38 39 41 41 42
24 17 16 17 19 22 25 28 31 32 32 30 30 30 30 30 30 30 30 30 31 31 32 34 35 38 39 40 40 42 44 45 47
21 16 17 18 21 24 27 31 33 33 33 31 30 31 31 31 30 29 29 30 31 33 35 37 38 39 42 43 45 47 49 51 54
17 16 18 20 23 26 29 32 34 34 32 32 33 33 31 30 29 29 30 32 33 34 36 39 41 44 46 48 50 52 54 56 58
15 17 19 22 25 28 31 33 33 34 35 35 36 38 38 38 33 31 31 34 35 37 40 43 46 49 52 54 56 58 60 60 61
15 17 20 24 28 31 33 34 34 35 35 36 36 36 39 41 44 36 34 38 41 44 47 49 51 54 56 59 61 62 62 62 62
16 19 23 27 30 32 35 35 35 36 36 36 36 36 38 41 46 48 45 44 46 49 52 54 57 59 61 62 63 64 64 64 62

GFSFLT1_700_spd_045.txt.gz
Wind_Speed
2 1 1 1 2 2 3 4 5 6 7 9 10 11 12 12 12 11 12 13 12 13 13 13 14 15 15 16 17 18 18 18 18
0 1 2 2 2 4 4 4 4 5 6 8 8 9 11 11 12 12 13 13 13 13 13 13 14 14 15 16 17 17 18 19 20
1 1 2 2 3 4 4 5 5 5 6 7 8 9 10 11 12 12 12 13 13 13 13 13 14 14 15 15 16 17 17 18 19
2 3 3 2 3 3 3 3 4 4 5 6 8 8 9 11 12 13 13 13 14 14 14 15 15 15 15 16 17 18 18 19 19
3 3 3 3 3 4 5 5 6 6 7 8 8 10 11 13 14 15 15 16 16 16 15 14 14 15 18 19 19 20 20 20 20
4 4 5 6 5 6 6 6 7 8 9 10 11 12 13 15 16 16 17 17 16 16 17 17 16 16 16 17 20 22 24 23 22
5 6 6 7 7 7 8 8 9 11 12 14 14 15 16 17 18 17 17 18 18 17 18 19 19 20 21 24 25 23 22 23 23
8 8 9 8 9 10 11 11 12 14 15 16 17 18 19 19 18 19 19 20 20 21 22 22 23 24 24 26 27 28 28 28 27
11 11 12 12 13 13 14 15 16 17 17 16 17 18 19 20 21 21 22 23 24 25 26 27 27 27 28 30 31 32 32 33 34
15 15 15 16 16 16 17 17 17 17 17 18 18 19 21 23 24 25 26 26 27 27 27 27 26 27 27 28 29 31 32 33 35
17 18 17 18 18 19 18 17 17 17 18 20 22 24 25 26 27 27 27 27 26 26 26 27 27 28 28 29 29 30 31 31 32
18 19 18 19 19 19 18 17 17 19 21 23 25 27 28 28 27 27 27 27 27 27 28 28 29 29 29 31 31 31 32 33 32
17 18 19 19 16 15 15 16 18 21 23 26 28 28 28 27 27 27 28 28 29 30 30 30 31 31 31 31 31 32 33 34 34
19 18 18 14 13 14 16 18 20 23 26 28 29 28 27 27 27 28 29 29 30 30 31 31 31 32 32 33 34 35 35 37 37
21 18 18 14 14 16 19 21 24 26 27 28 28 27 28 28 29 29 30 30 29 30 31 32 33 35 35 36 37 39 40 42 43
11 23 15 15 16 18 21 24 27 29 30 29 29 29 30 29 29 28 29 29 30 31 33 34 36 37 39 41 43 45 46 49 50
16 17 14 15 17 20 23 27 29 31 31 29 29 30 29 28 28 28 30 31 32 33 34 36 39 42 44 46 48 50 52 54 55
21 16 15 16 18 22 26 29 31 32 31 30 32 33 33 34 30 29 30 32 32 34 37 39 42 45 48 51 54 56 58 60 62
19 15 16 17 20 24 28 30 32 32 32 33 33 33 35 37 39 34 33 35 36 40 42 44 48 51 55 57 59 62 64 65 66
15 15 16 19 23 26 30 32 33 33 34 34 34 34 35 37 40 42 37 38 40 44 48 50 53 56 58 61 64 66 69 70 69

GFSFLT1_700_spd_048.txt.gz
Wind_Speed
2 2 2 3 4 5 6 7 7 8 9 10 9 11 11 10 10 10 11 12 13 13 13 13 13 14 14 14 15 16 17 17 17
4 4 4 5 5 5 5 5 6 7 7 8 8 9 9 10 10 10 10 11 11 11 12 12 13 13 13 14 14 15 16 18 18
4 4 4 5 5 5 5 5 6 7 7 7 7 8 8 9 9 9 10 11 12 12 12 12 12 13 13 14 15 16 16 16 17
4 3 3 2 3 3 3 4 5 5 6 7 8 9 10 11 12 13 13 14 14 14 13 14 15 13 13 14 15 17 17 18 19
4 3 3 2 2 3 4 5 6 7 7 8 9 10 12 13 14 15 16 16 16 15 17 16 15 14 13 16 18 18 19 20 19
6 5 4 3 4 5 6 7 8 8 9 10 11 12 13 15 16 17 17 17 17 17 18 17 17 18 19 21 20 18 18 19 21
8 7 7 6 6 8 9 9 10 11 12 12 13 14 15 16 16 17 18 19 20 20 21 20 21 21 22 24 26 27 28 27 25
10 10 9 9 9 10 11 12 12 13 15 15 16 16 16 17 18 18 20 21 23 24 25 25 25 25 26 28 29 29 30 31 32
12 13 13 12 12 12 13 14 15 16 17 17 16 17 18 19 20 21 23 24 26 28 28 28 28 28 28 29 30 30 32 33 34
15 15 15 15 15 16 16 17 17 17 17 17 17 18 20 22 24 26 26 26 27 27 27 26 26 26 27 27 27 28 30 31 32
18 18 17 17 18 17 18 18 17 16 17 18 19 21 23 25 26 27 26 26 25 25 26 26 26 27 28 29 29 29 30 31 32
20 21 19 17 17 19 19 16 15 16 19 21 22 24 26 26 26 26 25 25 25 26 27 28 29 30 30 31 32 32 31 32 32
22 19 17 15 15 15 13 13 15 18 21 24 25 26 26 26 26 26 26 27 28 29 30 30 31 32 33 33 33 33 33 33 35
19 17 18 14 13 11 12 14 16 19 23 25 26 27 26 26 26 27 27 28 29 30 30 32 32 33 34 35 35 36 36 36 36
20 15 17 15 15 12 13 15 18 21 24 27 28 27 27 27 28 28 29 30 30 31 32 33 34 34 35 36 36 37 39 41 42
16 18 15 21 16 14 15 17 21 24 26 28 28 28 27 28 27 28 29 30 31 32 33 34 35 36 36 38 40 42 44 46 48
19 22 17 18 15 14 17 20 23 25 27 28 28 28 29 28 28 29 31 31 32 33 34 35 37 39 41 42 45 47 50 52 54
22 20 18 18 18 15 19 22 24 27 28 29 29 31 32 32 31 31 32 32 33 33 34 36 39 42 45 48 51 53 56 58 60
19 21 20 17 17 17 21 24 26 29 30 30 30 32 33 35 36 35 36 36 36 37 38 40 43 46 50 53 55 59 62 64 65
22 19 16 17 17 19 23 26 28 31 31 31 32 34 35 37 39 39 36 38 40 43 44 47 49 52 55 59 62 65 68 70 71

GFSFLT1_700_spd_051.txt.gz
Wind_Speed
4 4 4 4 4 5 5 5 6 7 8 8 9 9 9 10 10 11 11 12 12 12 12 12 12 13 14 13 14 14 14 15 16
7 6 6 5 4 4 5 5 5 5 6 6 7 8 9 10 10 11 12 12 12 12 12 12 12 12 13 13 14 15 15 15 16
7 7 6 6 5 5 5 5 5 5 6 6 7 8 8 9 9 10 11 12 12 13 14 14 13 13 13 13 13 14 14 15 16
7 7 6 5 4 4 3 4 4 6 6 7 8 9 9 10 11 12 13 13 14 14 15 16 16 15 13 14 14 15 16 15 15
6 6 6 6 6 6 6 6 7 7 8 8 9 10 11 13 13 14 14 15 15 15 16 16 17 17 18 18 17 14 16 15 17
7 6 6 6 7 7 8 8 8 9 9 10 11 13 14 15 15 16 17 17 17 18 18 18 18 19 20 21 21 22 22 20 20
9 9 8 8 8 9 9 9 10 11 12 11 13 14 15 16 17 16 18 19 20 20 21 21 21 22 23 24 24 24 26 27 28
11 11 12 11 11 11 11 11 12 13 15 15 15 15 16 18 20 18 22 23 24 25 25 25 25 26 27 28 27 28 29 30 30
13 14 14 14 14 14 14 15 15 16 16 17 16 16 18 19 22 22 24 26 27 27 27 27 26 25 25 26 25 26 27 28 29
15 16 16 16 17 16 16 17 17 18 17 17 16 17 19 22 24 27 25 27 26 25 25 25 24 24 25 25 26 26 27 28 29
17 19 20 19 19 19 18 18 19 18 17 16 17 19 22 24 26 28 25 25 24 24 24 24 24 26 27 27 28 28 28 29 30
20 22 22 20 19 19 19 20 17 15 16 17 19 21 24 25 25 26 26 23 24 25 26 26 27 28 29 29 30 31 31 31 31
19 25 24 20 14 17 17 15 14 15 17 19 21 23 24 25 25 25 26 26 27 27 29 29 29 30 31 32 32 33 33 33 33
23 21 27 20 15 15 15 14 15 16 18 21 23 25 26 25 26 26 26 27 28 29 29 30 32 32 33 34 34 35 35 35 35
26 18 25 25 19 16 16 15 16 17 20 23 24 25 26 26 26 27 28 28 30 31 33 34 35 35 35 35 35 36 36 37 38
28 18 18 20 21 19 16 16 16 18 20 23 26 27 27 27 27 28 29 30 31 32 34 35 36 37 37 37 37 39 40 42 44
25 21 22 23 21 16 16 16 17 19 22 25 28 30 30 27 28 29 30 32 33 34 35 36 37 38 39 40 41 43 45 48 50
28 25 22 23 16 17 18 18 18 21 23 26 30 31 31 31 31 32 32 34 34 35 35 36 37 39 41 43 45 48 50 53 55
31 25 23 25 27 16 21 19 20 23 26 28 31 32 32 34 34 35 37 39 39 39 37 37 38 42 45 48 50 53 55 57 59
29 25 27 23 19 18 19 19 22 25 28 31 33 34 34 36 37 37 37 39 39 41 43 43 46 49 51 53 56 59 61 64 66

GFSFLT1_700_spd_054.txt.gz
Wind_Speed
5 5 5 4 4 4 4 4 5 5 5 5 6 7 8 8 9 9 9 11 11 12 12 13 13 13 14 13 12 12 12 12 13
6 6 5 5 4 4 4 3 4 4 4 5 6 7 8 8 8 9 8 9 10 10 12 12 12 12 13 12 12 12 13 13 13
6 7 6 5 5 4 4 4 4 4 4 4 4 5 6 7 8 9 8 10 11 11 13 13 13 14 15 13 12 12 12 12 13
6 6 6 5 5 5 5 5 5 5 5 5 5 6 7 9 10 11 11 11 12 13 14 14 14 15 15 14 14 13 11 10 14
6 6 6 6 6 6 6 6 6 6 6 6 7 9 10 12 12 11 13 14 15 15 15 16 16 16 17 17 17 18 18 16 18
6 6 6 7 7 7 6 6 7 8 8 9 10 11 12 14 13 14 16 16 17 18 18 18 18 18 20 20 20 20 21 22 22
8 8 8 8 8 8 9 9 10 10 10 11 12 14 14 15 12 15 17 18 19 20 20 21 22 22 23 23 23 23 24 25 25
9 9 10 11 11 10 11 12 12 13 15 14 13 15 15 18 15 17 20 22 23 23 24 24 24 25 24 24 24 25 25 26 26
10 10 11 12 14 13 14 14 14 15 16 15 15 15 15 19 19 19 22 24 26 25 25 25 24 24 23 22 23 23 23 23 24
12 12 13 15 16 17 17 18 17 17 18 16 15 15 17 20 24 21 23 24 25 24 23 22 22 22 22 23 23 24 25 25 26
13 13 12 16 20 19 19 18 19 19 19 16 15 16 19 20 25 22 22 23 22 22 22 22 23 24 24 25 26 26 27 27 29
15 16 18 18 25 28 21 19 19 18 16 15 16 18 20 22 23 26 23 22 22 22 23 24 24 25 26 27 28 28 29 30 30
18 19 19 20 19 23 25 20 16 15 15 16 17 18 20 22 23 24 24 23 22 23 25 25 26 27 28 30 30 31 32 32 32
21 21 21 21 17 14 21 23 18 16 15 16 17 18 20 21 23 23 24 25 25 25 25 27 28 29 30 32 33 34 35 34 34
23 23 24 23 20 18 17 19 25 19 16 17 18 19 21 23 24 25 26 25 27 28 29 30 31 32 33 33 34 34 36 36 37
23 25 25 23 22 20 22 21 24 19 17 17 19 20 23 24 26 26 28 28 28 29 31 31 33 33 35 36 37 37 38 39 40
23 26 26 24 23 26 31 27 18 18 18 19 21 24 25 25 28 28 29 30 31 32 33 34 35 36 36 38 39 40 42 43 45
26 26 25 27 24 23 23 25 18 19 20 22 24 27 28 30 31 31 32 33 34 34 35 34 35 36 38 40 41 43 45 47 49
27 27 28 28 28 24 27 24 17 22 23 23 25 28 31 33 34 34 35 36 36 37 37 36 37 39 41 42 44 46 48 49 52
29 29 29 29 27 28 24 18 18 20 21 24 27 30 33 36 38 38 35 36 37 38 38 38 41 44 47 49 51 53 55 56 58

GFSFLT1_700_spd_057.txt.gz
Wind_Speed
5 5 5 4 3 3 4 4 4 4 4 4 4 5 5 6 7 7 8 7 9 8 8 8 9 10 10 9 9 9 10 10 10
5 5 4 4 3 3 3 3 3 2 3 4 5 6 6 5 6 5 6 7 8 9 9 9 10 11 11 12 10 9 9 9 9
6 6 5 5 4 3 2 2 2 2 2 2 4 5 6 6 6 6 7 7 8 10 10 11 12 12 13 12 10 6 7 10 10
5 5 5 5 5 4 3 3 2 2 2 4 5 6 7 7 7 8 8 9 9 11 12 13 13 14 14 14 14 14 14 13 10
5 4 4 4 4 4 4 4 4 5 5 6 7 9 10 9 9 10 10 11 11 12 13 14 15 16 16 16 16 16 17 17 18
6 5 5 5 5 5 5 6 6 6 7 9 10 11 12 10 11 11 12 14 14 14 15 16 17 18 18 19 20 20 20 20 20
5 4 5 5 5 6 8 8 8 8 9 11 13 14 14 11 11 13 15 16 17 16 18 19 20 21 20 21 22 22 22 23 23
7 5 5 6 7 8 9 10 11 11 11 12 13 14 15 12 12 14 17 19 20 20 20 21 21 20 20 20 20 21 21 21 21
10 8 7 7 8 10 12 13 14 15 16 16 16 14 15 13 14 16 18 20 21 21 20 20 20 19 19 19 19 19 20 20 20
12 10 10 8 6 8 12 17 20 18 16 16 16 15 16 15 16 17 19 20 20 20 20 20 19 19 19 20 20 21 21 22 23
12 12 11 11 12 16 19 17 19 23 22 19 14 13 16 17 17 19 19 20 20 20 20 20 20 21 21 22 22 22 23 24 24
13 12 14 16 17 18 18 20 15 18 23 20 15 15 16 19 18 18 19 20 20 21 20 21 21 22 23 24 24 25 25 26 27
14 15 15 16 17 17 19 19 21 19 17 21 17 16 17 18 18 18 20 20 21 21 22 22 23 24 25 27 27 28 28 28 29
19 18 18 19 18 20 19 17 20 20 18 19 20 17 17 18 19 19 20 22 22 23 23 24 26 27 28 29 30 31 31 31 32
24 21 21 19 20 20 19 17 18 19 22 23 19 18 18 19 20 21 22 24 25 27 26 26 28 30 31 32 33 33 33 33 34
22 21 20 20 21 21 21 19 21 28 27 24 18 17 19 20 21 22 24 25 26 27 29 30 32 32 33 34 35 35 35 36 37
21 23 22 21 21 21 24 23 25 25 24 26 26 21 20 22 23 25 27 28 29 31 31 32 34 35 36 37 37 38 38 39 40
21 24 22 21 23 24 25 26 21 26 25 24 21 25 25 26 25 27 29 31 33 33 34 35 36 36 37 37 38 39 40 42 43
23 25 24 24 25 25 26 27 24 23 22 24 22 24 24 26 29 30 33 34 35 35 35 37 38 39 40 40 40 41 43 45 46
24 26 27 28 28 28 26 33 30 19 21 25 24 24 27 29 32 32 34 35 36 37 37 38 39 41 43 44 46 47 49 51 52

GFSFLT1_700_spd_060.txt.gz
Wind_Speed
2 2 1 1 1 2 1 1 1 2 3 4 4 5 5 6 6 7 7 7 6 5 5 6 8 8 8 8 7 8 7 8 7
3 3 2 2 2 2 1 1 2 3 3 4 5 5 5 4 4 5 5 5 5 5 6 7 7 9 9 7 7 8 8 8 7
4 3 3 3 3 3 3 2 2 2 3 3 4 5 5 4 4 5 6 6 7 8 8 8 9 9 10 10 9 8 6 4 5
3 3 4 4 4 4 3 2 2 2 3 5 6 7 6 7 7 7 7 7 8 9 10 10 10 11 11 12 12 12 13 14 14
4 3 3 3 3 3 4 4 4 4 5 6 8 8 9 10 10 10 9 9 9 11 12 13 13 13 14 14 14 15 15 16 17
5 4 3 2 2 2 3 3 4 6 8 10 10 10 11 11 11 11 11 10 11 12 14 16 16 16 17 17 17 17 18 18 19
6 5 4 3 3 4 4 5 7 9 10 12 12 12 12 12 11 12 12 13 13 14 17 17 18 18 18 19 19 18 18 18 19
7 7 6 5 4 4 5 7 9 11 13 15 16 15 13 11 11 12 14 16 15 16 18 18 18 18 18 18 18 18 17 17 18
9 9 8 7 6 5 5 7 9 12 15 16 18 18 15 12 12 13 15 17 17 18 18 19 19 18 18 18 18 18 18 18 19
11 12 11 10 9 8 6 11 11 11 14 16 19 20 16 14 14 15 16 17 18 18 19 19 19 19 20 19 20 20 20 21 21
15 15 14 13 12 11 12 14 14 15 14 16 17 17 17 16 16 17 18 18 18 18 18 19 20 20 21 21 21 22 22 23 23
16 16 15 14 14 15 15 15 16 18 17 17 16 16 15 16 17 16 17 19 19 19 19 19 20 22 23 24 24 24 24 25 26
18 16 15 16 17 17 17 17 18 18 18 17 16 19 18 16 17 17 17 19 20 20 20 21 22 23 25 26 27 27 27 28 29
17 16 18 19 19 18 18 18 18 18 17 17 19 21 20 18 16 16 16 18 19 21 21 23 24 26 27 29 29 30 30 31 32
18 19 21 20 18 17 17 18 19 17 16 19 26 24 21 18 17 17 17 19 21 23 24 25 27 29 30 32 33 33 33 34 34
20 20 21 19 17 17 17 18 19 19 20 23 24 23 21 20 20 22 22 22 23 26 27 29 30 32 33 34 34 35 36 36 37
20 19 20 21 20 18 19 20 21 20 22 24 26 25 25 30 25 24 24 26 27 29 30 31 33 34 35 36 37 37 37 38 39
21 19 21 22 23 22 22 21 21 23 22 25 24 23 24 27 26 26 26 28 30 33 34 35 36 36 36 37 38 38 39 40 41
25 22 21 23 25 26 26 23 24 25 24 26 24 27 24 27 28 27 30 32 34 36 37 38 39 40 40 40 40 41 41 43 44
28 25 22 23 26 30 28 26 27 28 28 28 28 22 26 28 29 29 31 33 36 38 39 40 41 42 42 42 43 44 45 46 47

GFSFLT1_700_spd_063.txt.gz
Wind_Speed
3 2 3 3 2 2 2 2 1 1 2 2 2 3 4 4 6 7 7 8 7 6 7 7 7 7 7 7 7 7 7 6 6
4 3 3 2 2 2 1 2 3 3 3 3 4 4 4 4 4 5 6 7 6 6 6 7 7 8 7 5 5 6 7 7 5
4 4 3 3 3 3 3 3 3 4 4 5 5 5 5 4 5 6 7 7 8 7 7 8 8 8 9 9 8 9 9 8 6
5 4 3 3 3 3 4 4 5 5 6 7 7 7 7 7 7 7 8 8 9 9 10 10 10 10 10 11 12 12 12 12 13
6 5 4 2 2 2 3 3 4 5 6 7 7 8 9 10 10 9 8 8 9 10 12 12 13 13 14 14 15 15 16 16 16
5 6 4 3 2 1 2 3 4 6 7 8 10 12 13 14 13 11 10 9 10 12 14 14 15 16 17 17 17 17 18 18 19
4 5 5 4 3 2 2 3 5 6 8 10 11 12 14 15 14 13 12 12 11 13 16 16 16 16 17 18 17 17 17 18 18
8 6 6 7 5 4 4 4 6 8 9 10 12 13 14 15 14 14 14 15 15 15 17 17 17 16 16 17 17 17 16 16 17
11 10 9 9 8 8 7 5 6 9 11 12 12 13 14 14 13 14 15 17 17 17 18 19 18 18 17 17 17 17 17 18 19
14 13 12 12 11 11 9 8 10 12 14 15 15 15 14 13 13 15 16 17 18 18 18 19 20 20 19 19 19 19 19 19 20
16 15 14 15 14 14 12 14 14 13 15 16 16 16 15 14 15 16 17 16 17 18 18 19 21 21 21 20 20 21 21 22 22
18 17 16 17 16 15 16 17 16 15 17 17 17 15 15 16 17 17 18 17 17 18 18 18 20 22 23 23 23 22 23 24 25
18 18 17 18 17 17 17 17 17 18 18 17 15 15 16 18 19 19 18 17 16 17 18 19 20 23 24 26 26 26 26 26 27
20 18 18 18 18 18 18 18 19 18 16 16 15 17 21 21 20 18 17 16 17 19 21 22 23 25 27 28 29 30 30 30 30
21 20 20 21 20 20 19 19 18 18 17 17 17 20 21 20 20 19 18 19 21 25 27 25 26 27 30 31 32 32 32 33 33
23 21 20 22 21 21 21 20 18 19 18 18 20 24 23 22 22 23 28 29 25 25 26 28 29 31 32 34 35 35 35 35 36
25 22 21 21 23 24 22 21 21 20 20 20 22 23 24 24 24 25 23 24 24 27 28 30 32 33 34 36 36 37 36 37 38
27 24 23 23 22 24 24 24 24 22 22 23 25 25 26 26 27 25 25 26 27 29 32 34 36 37 37 38 38 38 38 39 40
29 26 26 25 23 24 25 27 26 27 26 25 26 27 27 28 29 26 27 29 30 32 34 37 40 41 42 41 41 41 41 42 42
33 32 30 28 27 24 26 28 30 31 30 30 28 27 29 28 27 29 30 31 32 34 37 41 44 44 44 44 44 44 44 44 45

GFSFLT1_700_spd_066.txt.gz
Wind_Speed
5 5 5 4 4 3 3 3 3 2 2 2 2 3 3 3 3 4 5 6 6 6 7 6 7 7 7 6 6 6 6 6 5
6 6 5 5 4 3 3 3 3 4 5 4 5 5 4 4 5 5 5 6 5 6 6 7 8 9 10 9 7 5 4 3 1
6 6 5 4 3 3 3 4 5 6 6 7 6 5 5 5 6 6 6 6 7 7 7 7 8 9 9 9 9 9 10 10 8
6 5 4 3 3 3 3 4 5 6 6 5 5 6 7 7 7 8 8 8 8 7 8 9 9 9 10 11 11 11 12 12 12
5 6 5 4 3 2 2 3 4 5 5 6 7 8 9 10 9 9 8 8 9 10 12 11 11 12 12 13 13 14 14 16 16
1 3 5 4 3 2 3 3 4 4 5 6 8 9 10 11 11 10 9 8 9 12 14 14 14 15 15 15 15 15 15 17 17
5 3 3 4 4 3 4 3 4 6 7 8 9 10 11 13 13 12 11 10 10 13 14 16 15 16 16 17 16 15 15 16 16
8 7 6 6 6 6 6 5 3 5 7 9 10 12 13 13 13 12 12 12 13 14 15 16 16 16 16 16 17 16 16 16 16
12 11 11 10 9 9 9 8 6 6 8 10 12 13 15 15 14 13 14 15 14 14 15 16 16 16 16 16 16 17 18 18 18
15 14 14 13 13 13 12 11 9 10 11 12 13 14 15 15 14 14 15 16 17 16 16 16 16 17 16 16 16 17 18 19 19
17 17 17 16 16 16 15 13 13 14 14 14 15 16 15 14 14 15 17 17 18 18 18 18 17 17 17 17 16 17 19 20 21
19 19 18 18 18 18 17 16 16 16 16 16 16 15 13 13 15 17 18 18 16 15 15 16 17 18 19 19 19 19 20 21 23
20 20 19 20 19 19 18 18 18 18 18 18 15 13 12 15 17 18 19 19 18 16 15 14 16 20 22 23 23 23 24 24 25
19 19 21 21 20 20 20 20 20 21 20 18 16 14 14 16 18 18 19 19 17 18 18 21 25 25 25 25 26 26 27 28 29
21 21 22 21 20 20 21 22 22 22 20 19 18 16 17 20 20 19 20 21 22 25 25 24 22 24 26 28 29 30 30 31 31
23 22 22 22 21 22 24 24 23 22 22 21 19 19 20 20 20 22 22 24 25 23 22 23 24 25 28 30 32 33 34 35 35
26 25 24 24 24 25 26 25 24 24 24 22 22 23 23 21 23 23 25 25 25 24 24 25 26 29 31 33 34 35 35 36 36
29 28 27 27 27 26 26 26 26 25 26 25 25 26 25 26 26 27 26 27 25 26 27 28 30 32 34 36 38 38 38 38 38
33 31 31 30 30 29 26 25 27 27 27 28 30 30 29 28 29 29 28 26 27 29 29 31 34 36 38 40 42 42 42 41 41
32 32 31 32 33 30 28 29 28 31 31 30 30 32 32 31 32 33 26 29 32 33 32 34 37 39 41 43 45 45 44 44 44

GFSFLT1_700_spd_069.txt.gz
Wind_Speed
6 6 5 4 4 4 3 3 4 4 3 3 2 2 1 1 2 2 3 3 3 3 4 4 5 5 3 5 4 5 5 4 3
7 7 7 6 5 5 4 4 5 4 5 4 4 4 3 3 3 4 4 4 5 5 5 6 6 6 7 6 6 6 5 5 4
7 7 6 6 5 5 5 6 6 5 5 4 4 4 4 5 5 5 5 6 6 6 6 7 7 8 8 9 9 9 10 9 8
7 6 5 5 5 4 4 5 5 4 4 4 5 5 5 5 6 6 6 6 6 7 8 8 9 10 11 12 12 12 12 12 12
3 5 5 4 3 2 2 3 3 3 4 6 6 7 8 8 8 7 6 6 7 8 9 9 10 11 12 13 14 14 15 15 15
2 1 2 2 2 1 2 2 3 4 5 6 7 8 9 9 10 9 7 6 8 10 11 11 11 12 13 13 14 14 14 15 15
5 5 3 2 2 2 2 2 1 2 4 6 8 10 11 12 12 11 10 7 9 11 12 12 13 13 13 14 13 13 13 13 13
9 8 8 7 6 6 6 5 5 3 4 5 6 9 11 12 13 13 12 11 11 12 13 13 13 13 13 13 13 13 14 13 13
13 12 11 11 11 10 9 9 9 7 6 8 9 11 12 14 14 13 12 12 13 13 13 12 12 12 12 12 12 13 14 14 14
16 15 14 14 14 14 13 13 12 11 11 12 13 13 14 15 13 12 13 14 14 14 14 13 12 11 11 12 13 14 15 15 16
18 18 17 17 17 17 16 15 15 15 15 15 15 16 16 15 13 13 14 15 16 16 16 14 13 11 11 12 13 15 16 17 18
20 20 19 19 19 19 18 17 18 18 18 17 17 18 16 14 13 14 16 17 18 18 17 15 13 12 12 15 16 17 18 19 20
21 21 21 21 20 20 20 20 19 20 19 19 19 18 16 16 15 16 17 17 17 16 15 15 15 16 19 19 18 19 21 21 22
22 22 22 22 22 22 21 21 21 21 21 21 20 18 18 17 17 18 18 18 17 18 19 20 21 21 20 19 20 21 23 24 25
23 23 24 23 23 23 22 22 23 23 23 22 21 19 20 20 19 19 19 19 19 21 23 22 19 20 21 21 22 24 26 27 28
25 25 25 24 23 24 25 25 25 25 25 23 22 21 22 22 20 22 22 21 21 22 23 21 21 21 22 24 24 26 28 30 31
29 27 27 26 26 25 26 26 26 27 28 25 25 25 24 23 22 24 24 25 26 26 26 25 25 25 26 27 28 29 30 32 34
31 30 31 30 30 28 27 28 29 29 30 28 28 28 28 24 25 27 26 27 28 29 27 26 28 30 30 31 32 34 34 36 37
33 33 32 33 33 33 30 30 29 28 29 30 30 31 35 30 30 28 30 29 30 29 28 31 33 34 34 35 36 37 38 39 41
35 34 34 38 37 35 34 34 32 31 30 31 30 36 41 38 28 35 29 32 30 34 32 34 36 36 37 37 39 40 42 43 45

GFSFLT1_700_spd_072.txt.gz
Wind_Speed
6 5 4 4 4 4 4 4 3 4 3 2 2 1 1 1 1 1 2 3 3 4 5 6 7 7 8 8 6 5 5 7 4
6 6 5 5 5 5 5 4 4 4 3 3 3 3 3 3 3 3 3 4 5 4 4 5 7 7 6 7 8 9 7 6 4
6 5 5 5 5 6 6 5 4 4 4 4 4 4 4 4 4 3 4 4 4 4 4 6 7 8 8 8 8 9 10 11 10
5 5 4 4 4 4 4 4 4 4 4 4 4 4 5 5 6 5 5 5 6 6 5 6 8 9 10 10 11 12 13 13 13
1 3 4 3 3 3 2 2 2 3 3 3 3 4 4 5 6 6 6 5 6 7 7 7 9 10 11 11 11 12 13 14 14
4 2 0 1 1 1 1 0 1 1 1 2 4 5 6 7 8 7 6 7 7 8 8 9 10 11 11 12 12 12 12 12 12
8 7 6 4 3 2 2 3 3 2 3 4 5 7 9 10 11 11 9 8 9 9 10 11 11 11 11 11 11 12 11 11 11
12 11 10 9 8 7 7 7 7 8 7 6 7 9 10 12 13 13 12 10 10 11 11 12 11 11 11 11 11 11 11 11 11
14 14 14 13 12 12 11 11 11 11 10 10 10 12 13 14 15 14 13 12 12 13 13 12 12 11 11 10 10 11 12 12 13
17 18 17 16 15 15 15 14 14 14 15 13 14 15 15 16 17 15 13 13 13 13 14 13 14 12 11 10 10 10 12 13 13
21 21 20 19 19 18 18 17 17 16 17 18 17 18 17 18 17 16 14 15 16 16 15 14 13 12 11 10 10 11 13 14 16
24 24 23 22 21 21 21 20 20 20 20 20 20 19 19 19 17 16 16 16 17 17 15 14 13 12 13 14 15 15 15 15 16
26 26 26 25 24 24 23 22 23 22 22 23 22 21 21 19 18 19 18 20 19 17 17 16 16 17 18 20 19 17 16 17 17
28 28 28 27 26 25 25 25 25 25 25 24 24 23 22 21 21 21 20 19 18 19 19 20 21 22 22 22 20 19 19 20 21
30 29 29 29 28 27 26 26 27 27 27 26 26 25 24 23 23 23 23 22 21 21 20 22 22 23 22 21 21 22 22 23 24
31 29 30 30 28 28 28 29 29 29 28 28 28 27 26 26 25 25 25 24 24 24 24 25 25 25 25 25 25 25 27 27 27
32 32 30 30 30 31 31 31 30 31 30 30 30 31 30 29 28 27 28 27 27 28 27 27 28 27 27 28 30 30 31 31 31
31 34 34 34 33 33 34 33 33 33 32 33 33 34 33 30 30 32 31 31 28 31 29 29 29 27 29 33 35 34 35 34 35
34 35 36 36 37 36 35 36 35 36 34 35 35 35 33 33 35 35 34 39 40 34 30 34 32 35 35 35 37 37 38 38 38
41 39 39 37 38 38 37 38 38 38 38 35 35 34 35 36 37 38 39 40 38 41 37 35 35 38 40 40 41 40 40 40 40

GFSFLT1_700_spd_075.txt.gz
Wind_Speed
6 6 6 6 5 5 5 4 4 4 4 3 3 3 3 3 3 3 3 4 4 4 4 4 5 5 7 6 5 6 6 6 6
6 7 6 5 5 5 4 4 4 5 5 5 4 4 4 3 4 4 4 4 5 5 5 6 6 6 6 7 7 7 7 7 5
5 5 4 4 4 4 4 4 5 5 5 5 5 5 5 5 6 5 5 5 5 5 6 7 8 8 8 8 9 10 9 9 9
4 5 3 3 3 3 3 4 4 4 4 4 4 5 5 6 6 7 5 5 5 5 6 7 8 9 10 10 11 11 11 11 11
0 2 4 3 3 2 2 2 2 3 3 4 5 5 6 7 8 9 8 8 7 6 6 8 9 9 10 11 11 12 12 12 12
5 3 2 2 1 1 1 1 1 1 2 3 3 4 6 7 9 9 9 9 9 9 9 9 10 10 10 10 11 11 11 11 11
8 7 6 4 3 3 3 3 3 3 3 4 4 6 8 10 11 11 12 11 11 10 11 11 12 11 11 10 10 10 10 10 10
11 11 10 10 9 8 7 7 8 8 8 7 8 9 11 12 13 14 14 13 12 11 12 12 12 13 12 12 11 10 9 9 9
15 14 14 14 13 13 13 12 12 12 12 12 11 12 13 14 16 16 15 14 13 12 12 13 13 12 12 12 11 10 10 9 9
19 17 17 17 16 17 16 16 16 16 15 16 17 15 16 16 17 18 16 14 14 14 14 15 14 13 13 12 12 11 11 11 11
22 21 20 20 20 20 20 20 19 20 19 19 19 19 18 19 19 21 17 15 15 16 16 16 15 14 13 13 12 12 13 14 14
24 24 23 24 24 24 24 23 23 23 22 22 22 21 21 21 21 23 18 18 17 19 19 17 16 15 15 15 16 16 16 15 15
26 27 27 27 27 27 27 26 26 26 25 25 24 23 23 23 23 22 22 20 20 20 18 18 19 19 19 19 20 20 19 19 17
28 28 29 29 29 29 29 29 28 28 27 27 27 26 25 25 25 23 23 23 23 22 21 20 19 20 21 23 23 21 21 21 20
33 32 31 32 31 31 30 31 30 30 29 30 29 29 28 27 27 26 25 25 26 27 23 24 21 23 23 24 24 24 24 24 25
35 34 33 32 32 31 32 32 32 32 32 32 32 32 31 30 29 29 28 27 27 29 29 27 27 25 25 26 25 26 27 28 29
35 33 34 33 33 31 32 33 33 34 34 33 34 35 35 33 31 31 30 30 30 30 30 30 29 29 29 25 26 25 29 33 34
35 35 34 35 35 33 33 33 33 34 35 35 36 37 38 37 34 33 33 34 33 33 33 33 36 38 34 34 32 31 34 33 35
35 36 34 34 37 37 37 37 36 35 38 37 38 40 39 38 39 36 37 37 38 36 36 37 39 38 41 38 39 36 38 38 38
41 41 41 41 40 41 40 40 41 39 40 39 38 40 40 40 39 41 38 39 39 39 40 40 39 37 40 40 42 42 43 41 42

GFSFLT1_700_spd_078.txt.gz
Wind_Speed
6 7 7 6 7 6 7 8 7 6 6 6 6 6 6 6 6 5 5 6 7 7 6 5 6 7 7 6 6 6 5 4 4
6 7 7 7 7 7 8 8 8 8 8 8 6 6 7 6 6 6 6 7 6 6 5 5 5 5 6 7 7 7 7 6 4
5 5 6 6 7 7 7 7 7 7 7 7 7 7 8 8 8 7 7 7 6 6 6 6 6 6 5 6 7 8 8 9 8
5 7 6 6 6 6 5 5 5 6 6 6 6 6 7 7 9 8 8 7 6 6 7 7 7 8 8 8 8 8 8 8 9
4 6 7 6 5 4 4 4 4 4 5 5 5 6 7 8 10 9 9 9 8 8 8 9 9 10 10 10 10 10 9 8 8
2 2 3 4 4 3 3 2 2 2 2 3 4 5 7 9 9 10 11 11 11 10 9 9 9 10 10 11 11 11 11 10 9
5 5 5 4 4 4 4 4 4 3 4 5 5 6 7 10 10 12 13 14 13 12 11 11 11 11 11 11 11 10 10 10 10
8 9 9 8 8 8 7 8 7 7 8 9 8 9 10 11 12 14 15 15 13 12 12 12 12 12 12 12 12 11 11 10 9
13 12 12 12 12 12 13 13 13 12 12 12 12 14 14 15 15 15 17 16 13 12 13 13 14 14 14 12 12 12 12 11 10
16 15 16 15 16 16 16 17 17 16 17 16 16 16 17 18 18 16 18 17 14 13 14 15 16 15 15 13 12 12 11 11 11
19 18 19 20 19 20 20 20 19 19 20 20 20 19 19 20 21 19 19 19 16 16 16 17 16 15 15 14 13 13 14 14 15
22 21 22 22 22 22 23 24 23 22 23 23 22 22 22 22 24 20 20 20 19 19 18 19 17 16 15 15 15 16 17 18 19
24 24 24 24 24 25 26 27 26 25 26 26 25 25 25 24 24 25 21 20 21 21 21 22 21 19 18 16 18 19 20 21 20
26 26 26 26 25 25 27 28 29 28 28 29 28 28 27 27 26 25 27 22 21 23 23 25 24 22 21 20 20 20 20 20 20
31 30 30 30 29 28 28 29 30 30 30 31 31 30 29 28 28 27 27 28 26 25 25 26 26 25 25 24 22 23 24 23 23
30 30 32 33 32 30 30 29 30 30 32 33 34 33 32 30 31 30 30 29 29 31 28 28 28 28 28 26 26 27 25 23 23
31 31 33 34 33 32 31 30 29 30 32 33 34 36 36 33 32 32 33 33 31 33 33 31 31 30 31 31 34 35 30 30 30
35 33 31 32 33 33 32 32 32 32 31 33 33 36 39 35 35 35 35 36 36 35 36 36 35 35 33 34 33 33 36 37 34
36 38 35 33 34 35 34 33 34 35 36 36 36 36 39 39 39 36 37 38 39 39 38 39 39 39 40 37 35 36 36 36 37
41 40 41 41 39 39 39 39 39 39 39 39 39 39 40 41 42 42 40 40 39 41 43 42 43 43 43 40 37 36 37 38 42

GFSFLT1_700_spd_081.txt.gz
Wind_Speed
8 9 9 9 9 9 9 8 8 7 8 8 9 7 7 7 6 7 7 8 7 6 5 6 5 5 5 6 5 5 5 4 3
7 9 9 9 9 10 10 9 8 8 9 9 9 8 8 7 8 8 8 7 7 6 6 5 5 6 6 6 6 6 5 4 4
8 7 7 8 9 8 8 7 7 8 8 8 8 8 9 9 9 9 8 8 7 7 7 6 7 6 7 8 8 8 8 7 6
7 8 9 7 7 6 6 6 6 6 6 7 8 8 10 9 10 9 10 9 9 9 8 8 8 8 8 8 9 10 10 9 9
6 7 7 7 7 6 6 6 5 5 5 6 6 7 7 9 9 10 10 10 10 9 9 9 9 9 10 10 10 10 9 9 9
1 2 4 6 7 7 6 5 4 3 4 5 6 6 8 9 11 12 13 13 12 10 9 9 9 9 10 11 11 11 11 10 9
3 3 3 3 4 4 5 5 5 5 5 7 8 8 9 9 12 13 14 15 14 11 10 10 10 11 11 11 11 10 10 10 10
6 6 7 7 7 7 6 7 7 7 8 9 10 11 12 12 12 14 14 16 15 12 12 12 12 13 13 12 11 10 10 10 10
9 8 8 10 10 10 11 11 11 12 12 13 13 13 13 14 14 15 16 16 15 13 13 13 14 14 13 13 12 12 10 9 9
13 13 12 11 12 13 14 15 16 16 15 16 16 16 16 16 16 15 17 17 17 15 14 14 15 15 15 14 13 12 11 11 11
16 16 16 15 15 16 16 18 19 19 19 19 19 18 19 18 18 17 18 18 18 17 17 16 16 15 15 15 15 14 14 14 15
19 18 18 18 18 19 19 20 21 21 22 22 22 21 21 21 20 20 19 19 20 20 18 18 18 16 17 17 16 15 16 17 19
18 19 20 22 22 22 21 21 22 23 24 24 25 25 23 25 22 22 21 21 21 22 22 21 21 20 19 18 18 18 18 18 18
20 21 23 24 24 24 23 23 23 24 25 26 27 28 26 26 28 25 23 23 23 22 23 23 23 23 23 22 21 20 19 19 20
21 22 24 26 27 27 28 28 27 27 27 29 29 30 28 28 28 31 27 25 25 25 25 25 26 26 26 25 25 24 23 23 22
24 24 24 25 26 26 28 29 29 27 27 29 30 30 30 29 30 31 32 30 28 27 27 28 29 29 29 28 28 27 28 29 29
28 27 25 27 28 27 27 26 27 28 29 29 30 31 31 30 30 31 33 33 34 31 30 30 32 33 33 32 32 32 31 32 31
33 31 30 29 31 30 27 27 28 29 30 30 31 34 34 33 32 32 33 34 34 35 33 34 34 35 35 35 35 36 36 35 34
36 36 36 36 35 33 31 31 31 33 32 34 33 34 36 37 39 36 35 36 36 35 35 35 36 36 36 38 37 40 40 37 37
42 41 41 41 40 38 37 38 38 38 38 37 38 38 39 40 41 41 37 38 39 38 39 40 41 44 45 43 47 49 48 39 38

GFSFLT1_700_spd_084.txt.gz
Wind_Speed
8 9 10 9 9 8 8 7 8 8 8 8 8 8 8 8 7 7 7 9 9 8 7 7 7 7 7 7 7 7 6 6 6
7 8 9 9 9 9 9 8 9 9 10 9 9 9 9 9 9 9 9 9 9 8 7 8 8 9 8 8 7 7 7 7 7
7 7 7 8 8 8 8 8 8 8 8 8 9 10 10 10 10 10 10 10 9 8 8 7 7 7 8 8 8 8 7 7 7
8 9 9 8 8 7 7 7 7 7 7 7 9 8 9 9 10 9 9 9 9 9 8 8 8 8 7 8 8 8 8 8 8
7 8 8 8 8 7 7 6 6 5 5 6 7 8 9 9 10 11 11 11 10 8 7 8 8 9 9 9 9 9 9 9 8
4 4 5 6 7 7 7 6 6 6 6 7 9 8 9 11 12 12 12 13 12 9 8 8 8 9 10 10 10 10 10 10 9
4 3 3 4 4 4 5 6 6 6 6 7 8 8 9 11 12 13 13 14 14 11 10 10 10 10 11 11 11 11 11 11 10
2 4 4 5 5 6 6 6 7 7 8 8 9 9 9 11 12 13 14 13 14 12 11 11 11 11 12 12 11 12 12 11 11
5 7 7 7 6 7 9 9 10 11 11 11 12 12 12 13 12 13 13 14 14 14 12 12 12 12 12 12 13 12 12 12 12
11 11 11 10 10 10 11 12 12 13 14 15 15 14 15 15 15 14 14 14 14 15 15 13 13 13 13 13 13 13 13 12 12
15 14 14 14 14 14 14 15 15 16 16 18 18 17 17 17 18 17 16 16 16 16 16 16 16 15 15 14 14 14 13 13 14
18 17 15 16 16 17 17 17 18 18 19 20 21 21 20 19 19 19 18 18 18 19 18 18 17 17 17 16 16 15 15 15 16
17 17 15 15 16 17 18 19 20 21 21 22 23 23 23 22 21 21 21 20 20 21 21 20 20 19 19 19 19 18 17 17 17
17 16 16 18 20 21 21 22 22 23 24 25 26 26 26 25 24 23 23 23 23 23 23 23 23 22 22 22 21 21 22 21 20
16 17 18 19 20 20 22 23 25 25 25 26 26 26 26 27 26 25 24 24 24 24 26 26 26 26 25 25 25 24 25 25 25
20 20 20 21 22 21 22 23 24 24 25 27 27 26 26 26 27 26 25 25 25 26 27 28 29 29 29 29 29 28 28 29 30
23 23 24 26 26 26 25 26 25 24 25 27 28 29 29 27 26 27 27 26 27 27 28 29 30 31 33 33 33 33 33 34 35
29 30 30 30 30 28 28 29 29 28 27 28 30 33 33 30 29 28 29 30 31 30 31 31 32 33 33 35 37 38 38 44 40
33 33 34 33 33 34 33 33 32 32 31 34 33 34 35 36 37 33 32 32 34 35 35 35 35 36 35 40 45 39 44 45 44
38 38 39 39 40 40 38 37 37 37 38 38 38 38 39 39 40 42 38 36 37 38 38 39 39 39 40 40 46 46 37 45 39

GFSFLT1_700_spd_087.txt.gz
Wind_Speed
9 9 10 9 10 10 9 9 9 10 10 10 10 11 11 10 10 10 10 11 11 10 10 10 10 9 9 9 9 9 9 9 8
7 9 9 9 10 10 11 11 11 11 10 11 11 12 12 12 11 11 12 12 11 10 9 10 9 9 9 9 9 9 9 9 9
8 9 8 8 9 9 9 10 10 10 11 11 11 12 12 11 11 11 11 10 10 8 8 8 9 9 9 9 9 9 9 9 9
9 9 9 9 9 9 9 10 10 10 10 10 10 10 10 11 12 13 12 12 11 9 9 9 9 9 9 10 10 10 10 9 9
8 9 10 10 10 9 9 9 8 8 8 9 9 10 11 12 13 14 13 14 12 10 9 9 9 9 9 9 10 10 10 10 10
6 7 8 9 9 9 9 8 8 8 9 9 9 10 10 12 12 13 13 13 13 11 10 9 9 9 9 10 10 10 10 11 11
6 6 6 6 6 6 5 5 6 7 8 8 6 6 8 10 12 12 13 13 13 13 11 10 10 10 12 12 11 11 11 11 11
4 3 5 6 6 5 5 5 6 6 7 7 7 7 8 9 10 12 13 14 14 14 13 12 11 12 12 12 13 12 11 11 11
7 4 5 5 5 6 7 8 9 10 10 10 10 10 9 10 11 12 13 14 14 14 14 13 13 13 13 13 13 13 13 12 11
11 10 10 9 9 9 10 9 11 12 13 13 13 13 13 13 14 14 14 14 14 15 14 14 14 14 13 13 13 14 14 13 13
15 14 14 13 12 13 14 13 13 14 15 15 15 15 15 16 16 17 16 16 15 15 15 16 16 15 15 15 14 14 14 14 14
17 16 15 15 14 15 15 16 15 16 17 17 17 17 17 17 18 18 19 18 18 17 17 17 17 17 17 17 17 16 16 16 16
17 17 16 16 16 15 15 16 16 17 18 18 19 19 19 19 20 20 20 20 19 19 19 19 20 20 19 19 20 20 20 20 20
17 16 17 19 17 17 18 20 21 21 22 23 24 23 22 22 22 21 21 21 21 21 22 21 22 22 23 23 23 23 24 25 24
17 18 19 17 16 16 17 19 20 20 21 23 24 24 24 22 21 20 20 21 22 22 23 24 24 25 26 26 27 28 28 28 30
19 19 19 18 17 18 21 22 22 22 23 26 25 25 25 24 22 22 21 20 21 22 23 25 26 27 28 30 31 33 34 34 34
22 22 22 22 22 24 25 25 25 25 26 28 28 29 27 25 24 25 24 23 23 23 24 26 27 29 30 32 35 37 39 41 40
25 25 26 27 28 28 28 28 28 29 30 30 32 34 33 30 29 28 28 27 27 27 28 29 30 31 32 34 36 40 45 40 40
29 29 29 30 32 32 31 32 34 35 35 33 33 35 37 38 39 34 33 33 33 33 33 33 34 36 36 36 36 37 42 40 38
32 32 33 34 35 36 37 38 39 39 40 38 39 40 41 41 41 43 40 36 37 37 37 39 40 38 37 39 38 39 42 38 37

GFSFLT1_700_spd_090.txt.gz
Wind_Speed
11 11 12 12 13 14 14 14 15 14 13 14 14 14 15 14 15 14 13 13 13 12 12 12 11 11 10 11 10 10 11 10 9
10 10 11 12 13 14 14 14 14 13 14 15 15 14 13 13 12 12 12 11 11 11 11 10 10 10 10 10 9 10 10 10 10
10 10 11 12 13 12 12 12 13 12 13 12 12 11 11 11 12 13 13 12 10 9 8 8 9 9 9 9 9 9 9 9 9
11 12 11 12 12 11 12 12 11 10 10 11 12 12 12 13 14 14 13 13 12 11 9 9 9 9 9 10 10 10 9 9 9
12 12 12 12 11 11 11 11 11 11 11 11 11 11 12 13 13 14 13 13 13 12 10 10 10 9 10 10 10 10 10 10 9
11 11 11 11 10 10 11 11 11 11 10 10 9 10 11 11 12 12 13 13 13 12 11 10 11 10 11 11 10 10 10 10 10
13 10 10 10 9 8 8 7 8 8 6 6 6 7 7 8 9 10 12 13 13 12 12 12 11 11 12 11 11 11 10 10 10
7 7 6 5 6 7 6 6 6 6 5 5 6 7 7 8 8 9 10 11 12 12 12 12 11 11 11 11 11 11 11 10 10
6 5 2 2 3 3 4 5 5 6 7 8 7 8 9 10 10 10 10 10 11 11 11 11 11 11 11 11 11 12 11 11 11
11 11 10 8 6 5 7 7 7 9 10 9 9 9 10 11 12 12 12 12 12 12 12 12 12 12 12 11 11 11 12 12 12
15 15 14 12 12 11 9 11 11 12 12 12 13 12 12 13 13 13 14 14 14 14 14 15 14 14 14 13 13 13 13 14 14
18 18 16 14 13 13 11 13 14 14 14 15 15 15 15 16 16 16 16 16 16 16 16 17 17 17 17 17 17 16 16 17 18
20 18 17 15 15 14 14 15 16 16 16 17 18 18 19 19 19 18 18 18 18 18 19 18 19 20 20 21 21 21 21 21 22
19 17 16 16 15 15 15 16 16 17 18 18 19 20 20 20 20 18 18 18 18 19 19 20 20 21 22 24 25 25 24 25 27
17 17 18 19 17 16 17 16 16 17 19 20 20 21 22 22 21 19 19 18 19 20 20 21 22 23 24 26 27 29 31 29 30
17 18 20 19 18 19 19 18 19 20 21 24 23 24 24 22 20 20 20 20 21 21 21 22 23 24 25 27 29 31 35 37 35
19 20 20 21 22 22 22 22 23 24 24 27 29 30 26 24 24 24 23 24 25 25 25 25 26 27 28 31 32 31 32 35 36
22 23 24 25 25 25 26 27 27 27 28 30 33 34 33 29 28 30 29 29 29 30 30 29 30 31 32 34 34 35 35 37 37
27 28 29 29 28 29 28 30 32 33 33 34 35 35 37 37 40 36 34 32 32 32 32 32 33 34 34 35 38 38 39 41 42
31 29 30 30 32 32 33 34 34 36 37 38 38 39 40 40 39 42 35 32 32 30 31 32 32 33 31 35 35 34 37 37 40

GFSFLT1_700_spd_093.txt.gz
Wind_Speed
15 15 16 16 16 17 17 17 17 17 17 17 16 16 16 15 14 12 12 11 12 11 11 11 11 11 11 11 11 10 9 8 8
13 14 14 15 16 16 15 15 16 16 16 15 14 13 12 11 11 12 11 10 9 9 9 9 10 9 9 9 9 8 8 9 9
13 13 14 14 13 13 14 15 15 13 13 12 12 12 12 13 13 13 13 12 10 9 8 8 8 8 8 8 8 8 8 8 7
13 13 13 13 13 13 13 13 12 12 13 13 13 13 13 14 14 14 13 13 11 10 9 9 8 8 8 8 8 7 7 7 7
14 14 14 14 14 13 14 13 12 13 13 13 13 13 13 14 13 13 13 12 11 9 9 9 9 8 8 8 8 7 7 6 7
14 14 14 14 14 14 14 13 12 11 11 9 9 9 10 10 10 10 11 11 9 9 9 8 8 8 9 8 8 8 7 7 6
16 13 13 14 12 12 10 8 7 7 6 5 5 5 6 6 6 7 8 8 8 8 7 8 8 8 8 8 8 8 8 8 7
12 11 12 10 9 8 7 6 5 4 4 4 4 5 5 5 6 6 7 8 8 8 8 7 7 8 8 8 9 8 9 9 9
12 10 8 6 4 3 2 1 2 3 3 3 4 5 6 7 7 8 8 9 10 9 9 9 9 9 9 9 10 10 10 10 10
11 9 8 7 5 3 3 5 6 5 5 7 7 8 9 9 10 10 11 12 12 12 12 12 12 11 11 11 11 12 12 12 12
14 13 12 12 11 10 10 9 9 9 10 10 10 11 11 12 13 13 14 15 15 15 15 15 15 15 15 15 15 14 15 15 15
18 16 15 15 14 13 12 12 11 12 12 13 14 14 14 15 15 15 16 17 17 17 17 17 18 18 18 18 18 19 19 19 19
20 19 18 17 16 15 14 14 13 13 15 16 17 17 17 17 18 17 18 18 18 18 19 19 20 20 21 22 21 21 22 23 23
22 20 19 17 17 17 15 15 15 15 14 15 16 16 16 17 17 18 19 18 19 19 20 21 21 22 22 23 25 25 23 24 26
20 19 18 17 18 17 16 17 17 15 15 16 17 18 17 18 19 19 19 20 21 21 21 21 22 22 23 24 25 27 28 26 27
18 18 19 19 18 18 18 19 18 18 19 21 20 21 21 20 21 21 21 22 22 22 23 24 25 25 26 26 27 28 32 34 31
18 19 19 19 19 20 21 22 22 23 24 25 26 25 24 23 24 24 24 26 26 27 27 27 28 28 29 30 31 32 34 34 37
19 20 20 21 22 23 24 26 26 26 28 28 30 31 30 29 28 27 28 29 31 31 31 31 31 32 33 33 33 32 32 30 32
23 23 22 24 25 26 27 28 28 29 31 32 33 33 35 36 39 34 31 31 27 29 26 29 30 32 28 32 33 31 31 32 33
26 26 26 28 29 29 29 29 32 34 36 35 36 37 38 39 39 41 31 28 32 27 30 32 30 32 31 33 35 36 33 35 35

GFSFLT1_700_spd_096.txt.gz
Wind_Speed
14 15 16 16 16 16 16 16 16 15 15 15 15 14 12 12 10 9 9 9 9 9 8 8 8 8 7 7 7 7 7 7 7
14 15 16 16 16 16 15 15 15 14 13 13 12 11 11 11 10 9 9 8 7 7 6 6 6 6 6 6 5 5 6 6 7
15 14 15 14 14 14 14 14 13 11 11 12 12 12 11 11 11 11 11 10 9 8 7 6 6 5 5 6 6 6 6 6 6
14 13 14 13 13 14 13 12 12 12 13 12 12 12 12 12 12 11 11 10 8 7 7 6 6 5 6 6 7 7 7 7 7
15 14 14 14 13 13 13 12 12 12 13 12 11 11 11 11 11 11 10 9 8 7 6 6 5 6 6 7 7 7 8 8 8
15 15 15 15 15 14 13 12 12 11 9 8 7 7 7 7 8 8 8 8 8 7 7 6 5 5 6 7 7 8 8 9 9
13 14 14 14 14 13 10 9 8 6 5 4 4 3 4 4 5 6 6 6 7 7 7 7 6 6 7 7 7 8 8 9 9
14 14 13 12 11 10 9 7 5 3 2 2 3 3 4 5 6 7 8 8 8 8 8 8 8 8 8 8 8 9 9 9 10
15 14 13 11 9 7 6 4 3 0 2 4 5 6 7 7 8 9 9 10 11 11 12 12 12 11 11 10 10 10 11 12 13
16 14 12 11 9 7 5 3 3 5 6 7 9 10 10 11 11 11 12 13 14 14 14 15 15 15 14 14 13 13 14 14 15
17 16 14 13 12 11 9 9 8 8 10 11 12 12 13 13 13 14 15 16 16 17 17 17 18 18 17 17 17 17 17 17 18
20 19 18 17 16 14 13 13 12 11 12 13 13 14 14 15 16 17 18 18 19 19 19 20 20 21 21 20 20 20 21 20 21
24 23 22 20 19 17 16 15 14 14 14 15 14 14 14 14 15 16 18 19 19 20 20 21 21 22 23 23 22 22 22 23 23
26 25 24 22 20 19 18 16 16 16 16 15 14 14 14 14 14 17 18 19 20 21 21 22 22 23 23 24 24 23 22 22 24
29 28 26 23 20 19 18 17 18 17 16 16 16 16 16 16 16 19 20 20 21 22 23 24 24 25 25 26 27 28 28 25 26
28 27 25 22 21 21 20 20 19 18 19 19 19 20 19 19 20 21 22 23 24 25 26 26 27 28 28 29 29 30 32 35 31
25 25 23 21 22 22 21 21 21 21 22 23 24 24 23 23 24 24 25 27 28 30 29 30 32 33 32 31 32 33 33 35 36
26 24 23 24 23 22 23 23 24 24 25 25 27 28 29 28 28 28 29 31 31 33 32 34 33 34 33 32 33 31 32 33 28
22 23 24 24 23 23 24 25 25 27 27 28 29 33 35 33 36 34 34 32 32 29 30 29 29 26 32 32 35 29 36 34 34
30 25 23 23 23 24 25 26 28 32 33 34 33 35 37 36 38 42 38 33 30 29 28 32 29 30 36 33 35 35 35 35 34

GFSFLT1_700_spd_099.txt.gz
Wind_Speed
13 14 14 14 14 15 14 14 15 14 14 13 12 10 9 8 7 6 7 7 6 7 6 7 7 7 7 7 7 8 8 8 9
14 15 15 15 15 15 15 15 14 13 11 10 9 9 9 9 8 8 7 6 6 7 7 7 7 8 8 7 8 8 8 9 10
15 15 15 15 14 14 15 13 11 10 10 10 10 11 9 9 9 10 9 9 9 9 9 8 8 8 8 9 8 8 9 9 10
15 14 14 14 14 14 12 11 11 11 11 11 11 11 11 10 10 10 10 10 9 8 8 7 7 7 8 8 8 9 9 10 10
14 13 13 14 12 12 12 12 12 11 11 10 10 10 9 9 9 10 10 9 9 9 8 7 7 8 8 8 9 9 10 10 10
14 13 13 12 12 12 12 12 11 10 8 7 7 7 7 7 8 8 8 8 8 8 8 8 9 9 9 9 9 9 10 10 10
13 13 13 13 13 12 11 9 8 6 5 4 4 4 5 6 7 7 8 8 9 9 9 9 10 11 11 11 11 10 11 11 12
12 12 12 13 11 9 8 6 4 3 2 2 3 5 6 7 8 9 10 10 10 11 11 11 12 12 12 12 13 13 12 12 13
15 14 13 11 10 9 7 5 3 1 1 3 5 7 9 10 11 11 11 12 12 13 13 13 14 14 14 14 15 15 14 14 14
14 14 13 12 10 9 8 5 4 4 5 6 8 9 11 12 13 13 14 14 15 15 16 16 16 16 16 17 17 17 17 16 17
18 16 14 13 12 11 10 9 9 8 8 10 10 12 13 14 15 16 16 17 17 17 17 17 17 18 18 19 19 19 19 19 19
21 20 18 17 16 16 15 14 13 13 11 11 12 13 14 15 15 16 17 16 18 18 18 18 18 18 18 19 20 20 20 20 21
24 23 22 21 20 19 19 18 17 15 14 13 13 14 13 14 14 14 16 18 19 19 19 19 19 19 20 20 19 20 21 22 22
28 26 26 25 24 22 21 21 19 17 16 15 14 14 14 14 15 16 17 19 20 22 20 22 22 22 22 24 24 22 20 22 23
30 29 29 28 26 25 24 22 21 19 17 16 16 16 16 17 17 18 20 21 22 24 26 25 26 26 27 27 27 29 29 24 24
31 30 30 30 29 26 25 24 22 20 19 18 19 19 20 20 20 21 23 24 25 27 28 31 31 31 31 32 33 33 32 32 29
32 31 32 30 28 25 25 23 22 22 21 21 21 22 23 23 23 24 25 27 29 31 33 34 33 34 35 33 33 32 31 32 28
31 30 29 26 26 25 25 23 23 23 23 23 23 25 26 28 29 29 28 28 31 34 36 33 32 30 29 29 23 25 34 33 26
29 25 24 25 24 23 23 23 23 25 25 26 27 28 30 30 33 36 31 32 35 38 33 33 32 32 29 28 28 32 34 31 33
36 29 26 24 22 21 20 21 24 25 25 30 30 31 33 35 35 38 38 38 38 37 34 34 33 35 32 29 32 36 36 33 33

GFSFLT1_700_spd_102.txt.gz
Wind_Speed
13 14 14 15 15 14 14 13 13 13 13 11 10 9 8 7 9 8 8 8 7 8 8 9 9 10 10 10 10 10 10 10 11
13 14 14 15 16 16 15 14 13 12 11 9 9 9 8 10 9 9 9 9 9 10 10 10 10 11 11 11 11 11 11 11 11
14 15 15 16 16 15 15 13 11 11 11 10 10 10 9 10 10 10 10 10 10 11 11 11 11 11 11 11 11 11 11 11 12
15 15 15 15 15 14 12 11 11 12 12 11 11 11 10 11 11 11 11 11 11 11 11 11 11 11 11 11 12 12 12 12 12
14 14 15 15 13 12 12 12 12 12 12 11 10 10 9 11 11 11 11 11 11 11 11 11 11 12 12 12 12 12 13 13 13
14 15 14 13 12 12 12 12 12 11 9 8 7 7 7 9 10 10 10 10 10 11 11 11 11 12 12 12 12 13 13 13 13
14 13 13 13 12 11 11 10 9 7 6 6 5 6 7 8 9 9 10 10 11 11 11 12 12 12 13 13 14 14 13 13 13
13 12 12 11 10 10 8 7 5 4 4 4 5 6 7 8 9 10 11 11 12 12 13 13 13 13 14 14 14 14 15 14 14
14 13 11 10 9 8 7 6 4 3 3 3 5 8 9 10 10 11 12 13 13 14 14 15 15 15 15 15 15 16 16 15 16
16 14 12 10 9 7 5 3 1 2 3 6 7 9 10 12 11 12 13 14 15 15 15 15 15 15 16 16 17 17 17 17 17
17 15 13 11 9 8 7 6 6 7 7 8 9 10 11 12 14 12 13 13 14 14 15 15 16 16 16 17 17 18 18 18 18
17 16 15 14 13 12 11 11 11 12 12 12 11 12 12 12 13 13 12 13 15 16 16 16 16 16 16 17 18 18 19 19 20
20 19 18 18 17 16 15 15 16 15 15 14 13 13 13 12 12 13 15 15 16 18 19 19 19 19 21 20 18 19 20 20 20
24 24 22 22 21 20 19 19 18 18 17 16 15 14 13 12 13 15 16 18 19 20 21 22 24 24 25 25 24 23 22 24 23
29 28 27 26 24 23 22 22 21 20 19 18 17 16 15 15 15 17 19 20 21 24 25 26 29 30 30 30 30 30 27 24 23
32 32 31 30 27 26 24 24 24 22 20 19 19 18 17 17 18 19 20 22 24 26 28 29 32 33 30 31 29 29 24 23 21
33 32 31 30 29 28 27 25 25 22 21 21 21 20 20 19 21 21 22 26 26 29 31 33 36 34 30 29 27 26 23 18 24
34 34 35 32 31 30 28 25 25 23 22 22 22 22 22 23 24 24 28 28 29 31 32 34 35 33 33 30 28 23 25 21 24
28 35 36 33 30 27 27 24 24 22 21 23 22 22 23 25 28 26 29 33 33 34 34 36 34 33 33 33 33 27 23 29 31
37 31 35 42 30 27 31 25 27 24 24 23 24 24 25 25 24 31 34 36 36 38 38 38 35 34 34 33 33 29 22 27 33

GFSFLT1_700_spd_105.txt.gz
Wind_Speed
15 16 16 16 16 14 13 13 14 13 12 12 11 11 10 11 12 12 11 10 10 11 11 11 12 12 12 12 12 12 12 12 12
16 16 16 16 15 15 15 14 13 11 10 11 12 13 12 13 13 12 12 12 12 11 12 11 12 12 13 13 12 12 12 13 13
16 16 16 17 16 16 15 13 12 11 11 12 13 14 14 13 13 13 12 12 12 12 12 12 12 13 13 13 13 14 14 14 14
16 17 17 16 16 15 14 12 12 12 12 13 15 14 14 14 13 13 13 12 12 12 12 13 13 13 14 14 14 14 14 14 13
15 15 15 15 14 13 13 12 12 13 13 13 13 13 12 12 12 12 12 12 12 13 13 13 13 13 14 14 14 14 14 14 14
14 14 14 13 14 14 12 12 12 11 10 10 11 11 9 10 10 10 11 11 11 12 12 12 12 13 13 13 13 14 14 14 14
13 13 14 13 14 13 11 10 9 8 8 8 9 10 8 9 9 9 10 10 11 12 12 12 12 12 12 12 13 13 13 14 14
14 13 13 13 12 12 10 8 7 7 6 7 7 8 7 8 8 9 9 10 10 11 12 12 12 12 12 12 12 13 13 14 15
15 15 13 13 11 10 10 9 8 7 6 7 8 7 7 7 8 9 10 10 11 12 12 12 12 12 12 12 13 13 14 15 15
16 15 16 14 13 11 9 7 4 3 3 6 8 9 9 8 9 9 10 10 12 13 13 13 12 12 12 13 14 14 14 15 16
18 16 15 13 11 9 6 4 3 4 6 7 8 11 10 10 9 9 10 10 12 13 14 14 14 14 15 16 16 16 16 16 17
20 17 15 13 11 9 8 7 7 9 10 10 10 11 11 10 9 9 10 11 12 13 14 15 16 17 18 19 19 19 19 19 19
20 19 17 15 13 12 11 12 12 12 12 12 12 11 12 10 10 10 10 11 13 14 16 17 19 20 22 20 20 21 22 22 22
21 20 19 18 17 17 16 16 16 15 15 15 14 13 13 12 11 12 12 12 14 16 18 20 22 24 27 26 22 21 22 22 21
25 24 23 23 22 21 20 19 20 19 18 17 16 15 15 14 14 14 15 15 16 20 20 22 24 27 29 27 24 23 19 17 16
29 28 28 27 26 25 25 24 23 22 21 20 19 18 17 16 15 16 16 17 18 19 24 25 26 28 30 29 27 26 21 17 20
32 32 31 30 29 29 28 27 26 24 23 22 21 20 19 18 18 18 18 19 21 22 25 27 28 29 31 29 28 26 23 18 15
32 35 36 34 31 31 30 29 27 26 25 23 23 22 21 21 21 21 21 21 22 25 28 29 31 33 34 31 31 29 25 22 18
39 34 34 39 37 36 32 33 29 29 26 24 21 22 23 24 26 24 25 23 26 27 31 31 34 35 36 33 32 31 26 24 22
35 39 36 52 47 44 40 41 29 30 27 24 28 25 23 24 27 27 25 27 30 31 30 33 36 37 35 33 34 31 28 23 22

GFSFLT1_700_spd_108.txt.gz
Wind_Speed
15 16 16 16 16 14 13 14 14 14 13 10 11 12 12 12 13 13 12 12 13 12 12 12 11 11 12 12 13 12 12 12 12
16 17 18 17 15 15 14 15 13 12 11 12 13 14 14 14 13 13 13 12 12 12 11 11 12 12 13 13 13 13 13 13 13
16 17 17 17 16 15 14 12 12 13 13 13 14 15 15 14 14 13 13 12 12 12 12 12 12 13 13 13 13 13 14 14 14
15 16 17 17 16 14 12 12 13 14 14 15 15 15 15 14 13 13 13 12 12 12 12 12 13 13 13 13 13 13 14 14 14
16 15 15 15 14 13 13 14 14 14 15 14 14 13 12 12 11 11 11 11 11 11 12 12 12 12 12 12 12 12 12 13 14
16 15 15 14 14 14 14 14 13 12 13 12 12 11 10 10 10 10 10 10 10 11 11 11 11 11 11 11 11 12 12 13 13
17 16 15 14 14 13 13 13 12 11 11 11 10 9 8 8 8 8 8 8 9 9 9 10 10 10 11 11 12 12 12 12 13
16 16 16 15 14 13 13 12 12 11 10 9 8 7 6 7 7 7 8 8 8 9 9 9 10 10 11 12 12 13 13 13 13
16 16 16 16 14 13 13 14 13 12 11 10 8 6 6 7 7 7 8 9 10 10 11 10 11 11 12 12 13 13 14 13 13
16 16 16 16 16 15 14 11 9 7 6 6 7 8 6 6 7 7 8 8 10 10 11 11 12 12 13 14 15 15 15 15 15
20 19 19 17 15 12 10 7 5 2 1 3 5 6 7 5 6 6 7 7 9 10 11 12 14 14 15 17 18 17 17 17 16
22 21 20 17 14 12 9 8 5 4 5 6 7 8 8 7 5 5 6 8 9 10 11 13 14 16 18 20 20 20 18 19 19
22 21 20 17 15 13 10 9 9 9 10 10 10 10 10 10 8 8 8 8 10 11 13 14 15 16 18 20 21 20 18 19 18
23 21 20 18 16 15 14 14 14 14 13 14 13 13 13 13 11 10 10 10 11 12 14 15 17 19 20 22 23 19 17 16 16
23 22 22 20 20 19 18 18 19 19 18 18 17 16 17 16 14 13 13 12 12 14 15 18 19 20 22 24 26 23 18 17 17
25 25 25 24 24 23 24 24 24 23 23 21 20 20 21 19 18 17 15 16 15 16 19 19 20 23 23 25 27 25 21 17 21
25 24 25 26 26 28 27 28 27 27 26 25 25 24 23 22 20 20 18 20 19 19 22 22 22 24 24 27 30 27 23 18 18
27 30 27 25 27 28 29 30 29 28 29 28 29 26 24 23 23 23 22 22 22 24 24 25 26 25 28 30 31 29 27 24 21
38 40 42 37 33 34 30 39 40 30 27 31 29 29 27 25 25 25 27 25 24 25 26 29 30 29 25 33 33 31 29 27 23
37 39 39 36 36 31 36 37 46 44 41 46 35 29 31 31 27 28 31 26 26 29 33 33 32 26 30 34 36 32 30 26 22

GFSFLT1_700_spd_111.txt.gz
Wind_Speed
13 13 14 13 15 15 14 15 14 12 11 11 11 10 12 13 13 13 13 13 13 12 12 12 12 12 12 13 13 13 13 13 13
13 14 15 16 15 15 15 14 11 10 12 12 12 12 13 15 14 13 12 12 12 12 12 12 12 12 12 13 13 13 14 14 14
15 16 16 15 15 15 14 12 11 12 13 13 13 13 15 16 14 13 12 12 12 12 12 11 12 12 12 13 13 14 14 14 14
17 16 16 15 15 14 12 13 13 14 15 15 13 14 15 15 13 12 11 11 11 11 10 10 11 11 12 12 12 13 13 13 14
18 18 17 16 14 13 14 14 14 15 15 14 13 13 12 12 11 11 10 10 10 9 9 9 10 10 11 11 12 12 13 13 13
20 19 17 15 14 14 15 16 15 14 14 13 12 11 10 10 10 9 8 8 8 8 8 8 9 9 10 11 11 12 13 13 13
18 19 18 16 16 15 15 15 15 14 13 12 11 9 7 7 7 7 7 7 7 8 8 8 9 10 11 11 12 12 13 13 13
17 16 16 17 17 16 16 15 16 15 12 10 8 8 7 6 7 7 7 7 8 9 9 10 10 11 12 12 13 13 14 14 13
18 16 16 16 16 16 16 16 16 15 14 11 8 6 6 6 6 6 6 7 8 9 10 10 11 11 12 14 14 14 14 14 13
18 18 18 17 18 19 17 15 13 11 10 8 7 7 6 6 6 5 6 6 7 8 9 10 11 12 14 15 16 15 15 14 15
19 19 20 21 20 19 16 12 9 6 4 3 2 3 6 6 5 6 6 6 6 7 8 9 11 13 15 17 20 18 17 15 17
21 21 21 20 19 16 12 9 5 3 2 2 3 4 5 6 6 5 6 6 7 8 10 11 12 13 15 18 21 21 19 17 17
25 25 23 20 18 15 13 9 7 6 6 7 8 8 8 8 8 9 9 9 10 10 11 13 12 14 15 17 19 23 20 17 16
26 26 24 21 19 16 13 12 11 12 12 13 13 13 13 13 12 12 12 11 11 11 12 14 14 15 17 19 19 21 17 18 18
25 25 24 21 18 17 15 15 17 18 18 18 18 18 17 18 16 16 15 15 14 14 13 16 19 17 19 21 21 22 22 18 18
25 24 23 23 21 20 21 22 22 22 22 23 23 22 22 22 21 20 19 19 19 18 18 18 20 20 22 24 23 19 21 15 20
24 23 22 22 23 24 25 25 25 26 26 27 27 27 26 25 24 24 22 23 23 21 21 22 21 21 23 26 25 24 24 20 18
20 20 23 23 22 26 24 25 27 26 25 27 30 30 29 26 26 26 26 26 25 23 24 25 24 24 25 26 26 28 29 29 24
24 28 32 32 34 34 35 39 34 34 31 37 41 35 27 29 27 28 29 28 27 23 26 26 25 27 25 25 24 29 31 29 27
29 32 31 32 34 33 29 32 39 30 39 41 32 40 36 28 45 36 33 34 30 30 28 29 30 27 27 25 27 33 34 30 27

GFSFLT1_700_spd_117.txt.gz
Wind_Speed
17 16 13 10 13 13 11 11 12 10 10 10 11 11 12 13 14 14 13 12 11 11 11 11 12 12 13 13 13 13 13 13 13
18 18 15 14 15 12 12 12 11 10 11 11 11 13 13 14 14 13 12 11 11 11 11 11 11 11 11 11 11 11 12 11 11
17 18 17 18 15 14 13 11 11 13 13 13 12 13 14 14 13 12 11 11 10 10 9 9 9 9 9 9 9 10 10 11 10
19 20 21 18 17 16 13 13 14 15 14 15 14 13 13 13 12 11 10 9 8 8 8 8 8 8 9 9 9 10 10 10 10
22 22 22 20 18 15 14 15 15 16 16 15 14 13 12 11 10 9 8 7 7 7 7 8 8 9 9 10 10 10 9 10 10
23 23 22 21 18 16 16 16 16 16 16 15 14 13 11 9 8 7 7 7 7 7 8 8 8 9 9 10 10 10 11 11 10
25 24 23 20 18 18 17 18 17 17 16 14 13 11 9 8 8 8 8 8 9 9 9 9 9 9 11 13 13 13 12 12 12
26 26 24 21 20 19 19 19 18 17 14 13 11 10 9 8 8 8 8 8 8 9 9 9 10 11 13 14 15 15 14 13 13
26 25 23 22 22 21 21 20 18 16 14 12 11 9 8 8 7 6 6 7 7 7 7 7 8 9 11 12 14 16 16 15 14
25 24 23 24 23 23 21 21 19 18 15 13 11 9 7 6 5 5 4 4 4 4 5 6 7 9 10 11 13 14 16 16 15
25 25 25 25 24 24 23 22 19 15 12 9 7 5 5 4 3 3 3 3 4 5 6 7 9 10 11 12 14 15 17 15 16
26 25 25 25 26 26 23 20 17 13 10 7 4 2 1 2 3 4 5 6 7 7 8 9 10 11 12 13 15 17 18 18 19
28 27 26 27 28 26 23 20 16 12 9 6 5 4 5 7 8 9 10 10 11 11 11 12 13 13 14 15 17 19 18 17 18
29 29 28 29 27 25 22 17 14 10 8 7 6 8 9 11 12 14 15 15 16 16 16 15 15 16 18 18 18 18 16 14 18
31 31 32 30 28 25 21 16 13 11 10 10 11 13 14 14 15 17 19 19 20 20 20 19 19 19 20 20 20 21 18 17 19
31 32 33 31 28 24 20 18 15 13 13 14 16 18 19 19 18 18 19 22 24 25 24 23 22 22 22 21 21 25 20 21 20
33 33 32 30 28 25 21 19 16 16 16 14 15 17 19 21 18 18 20 25 26 27 27 25 25 25 24 23 23 25 24 24 20
33 31 31 29 26 24 22 21 19 18 17 17 21 25 29 24 25 30 34 30 30 26 26 25 25 27 29 28 27 27 27 27 18
35 34 32 30 28 27 24 23 20 18 23 30 36 31 25 30 31 27 27 23 26 27 25 26 30 37 32 32 32 38 34 23 21
37 36 34 32 30 27 25 22 23 29 25 26 23 25 24 24 28 27 25 22 22 25 25 31 36 37 38 37 37 39 29 22 21

GFSFLT1_700_spd_120.txt.gz
Wind_Speed
16 17 14 9 11 12 11 12 11 11 11 12 11 11 12 13 13 12 11 10 9 9 9 9 9 10 10 10 10 10 9 9 9
18 18 14 12 15 13 13 12 11 10 12 12 12 12 13 13 12 11 10 9 9 9 8 8 8 8 9 9 8 8 8 9 9
21 19 15 16 16 15 14 12 11 12 13 13 12 13 13 13 12 10 9 9 9 8 7 6 7 8 8 8 9 10 10 10 10
21 20 19 19 18 16 14 12 13 14 14 14 13 13 13 13 11 9 8 7 7 6 6 6 7 8 8 9 10 10 10 11 11
22 22 22 21 20 17 14 14 15 15 15 15 14 13 12 11 10 8 7 6 6 6 6 6 7 8 9 10 10 11 11 11 11
25 25 24 22 20 17 16 16 16 17 16 15 14 12 11 10 8 7 6 6 6 7 7 7 8 9 10 11 11 11 11 11 12
27 28 26 24 21 18 18 18 18 17 16 14 13 11 9 8 7 7 7 7 8 8 8 8 8 9 10 10 11 12 12 12 12
31 30 29 26 23 22 21 20 19 18 16 14 12 10 9 8 8 7 7 7 7 7 7 7 7 8 9 10 12 13 14 13 13
34 31 29 26 24 23 22 21 19 18 15 14 12 11 9 8 7 6 6 5 5 4 5 5 6 7 9 11 12 14 16 16 16
34 32 29 26 25 25 23 22 20 17 16 14 12 10 9 7 5 4 3 3 3 3 4 5 7 9 10 12 13 15 17 18 18
33 31 29 28 27 26 24 23 21 19 17 14 11 9 7 5 3 1 1 3 4 5 6 7 9 10 12 14 14 16 18 17 16
32 31 29 28 28 28 27 25 23 19 15 12 9 7 4 2 1 2 4 6 7 8 9 10 11 12 12 14 15 16 17 17 15
34 32 31 30 29 29 28 26 22 18 14 11 8 5 4 4 5 7 9 10 11 12 13 13 14 14 15 15 15 16 17 16 16
34 32 32 32 31 31 29 25 21 17 14 10 7 6 6 7 9 11 13 14 15 17 17 18 18 18 18 18 18 17 18 19 17
35 34 34 33 34 32 29 25 21 17 14 11 9 9 10 11 12 15 16 17 17 19 21 23 23 22 22 22 21 20 21 20 20
38 37 36 35 36 33 30 26 21 18 15 13 12 12 13 14 15 17 18 17 17 20 22 24 27 27 25 24 25 23 24 24 29
37 37 37 37 36 34 30 25 21 18 17 16 16 15 14 17 19 19 17 19 25 28 27 26 27 28 27 26 27 30 30 31 30
39 37 37 37 36 33 29 25 22 22 20 19 19 19 22 25 23 26 26 24 27 28 23 25 24 26 27 29 32 33 32 33 33
38 37 36 37 35 32 30 29 27 25 23 21 23 25 26 29 25 19 18 21 26 27 25 25 26 26 27 30 32 31 32 34 36
39 39 38 38 37 34 33 31 30 29 24 27 25 25 26 26 29 27 24 27 27 28 22 24 26 29 29 36 39 34 39 40 37

GFSFLT1_700_spd_123.txt.gz
Wind_Speed
15 13 12 9 10 12 11 10 10 10 10 11 11 10 11 11 11 10 8 8 8 9 9 9 9 9 10 10 10 11 11 11 11
16 15 14 9 12 12 12 11 10 10 11 11 11 11 12 12 11 9 8 8 8 9 9 8 8 8 8 9 10 10 11 11 11
18 19 16 11 15 14 13 12 10 11 12 12 12 12 13 12 10 9 8 7 8 8 7 7 7 7 8 9 10 10 11 11 11
20 20 17 14 17 16 15 12 12 12 13 13 12 12 10 12 10 9 7 6 6 6 6 6 6 7 8 9 10 11 11 11 12
23 21 18 19 18 16 15 13 14 14 14 14 13 12 11 10 9 7 7 5 5 5 6 6 7 8 9 10 11 11 12 13 13
25 23 20 21 19 17 15 15 15 15 15 14 13 11 10 8 7 6 5 5 6 6 7 7 8 9 11 12 14 14 15 15 15
27 25 24 23 21 19 17 17 17 17 15 14 13 11 9 7 6 6 7 7 7 7 7 7 8 9 11 13 14 15 16 16 17
28 28 28 26 23 20 20 19 19 17 15 14 12 10 9 8 8 7 7 7 6 6 6 6 7 9 11 12 14 15 16 17 17
30 30 30 28 24 22 21 21 19 18 16 14 12 10 9 8 8 7 6 5 4 5 5 6 7 9 11 12 13 14 15 16 16
33 32 31 29 25 24 23 22 20 18 16 14 12 11 10 8 7 6 4 3 3 4 5 6 8 10 10 12 13 14 15 16 15
35 34 32 29 26 26 25 23 21 19 18 16 14 11 10 8 5 4 2 2 3 5 6 7 9 10 12 13 14 15 17 18 16
35 35 33 30 28 28 27 26 23 21 19 16 14 11 8 6 3 1 1 3 5 7 9 10 11 12 13 14 15 16 17 17 17
34 35 32 30 31 31 29 26 24 22 19 15 11 8 6 4 3 4 6 7 8 10 12 13 15 16 17 17 17 17 18 18 18
35 35 34 33 32 31 29 27 26 22 18 14 11 8 6 5 7 8 9 10 12 12 13 15 17 18 19 20 21 20 20 21 21
39 38 36 35 34 32 31 31 27 22 18 14 12 10 9 9 10 12 13 15 15 15 16 16 18 20 20 21 22 22 20 22 23
42 41 39 36 34 33 32 30 26 22 18 16 14 13 12 12 12 14 16 17 18 16 17 22 25 25 25 23 23 24 22 23 24
42 40 38 37 36 35 35 31 27 23 20 19 18 16 15 14 14 16 17 21 24 22 24 27 27 26 28 25 24 25 25 29 30
42 41 39 37 35 36 36 32 28 25 23 22 20 16 18 16 18 19 24 22 26 29 30 27 28 26 25 26 24 26 28 31 31
42 40 38 37 38 39 37 33 30 28 27 23 22 21 20 20 24 26 22 21 23 24 28 28 28 27 22 25 24 27 30 34 39
40 39 39 40 40 40 38 35 32 31 29 26 25 24 23 22 23 28 26 30 28 29 26 29 31 23 24 26 26 30 32 37 40